Time,TemperatureF,DewpointF,PressureIn,WindDirection,WindDirectionDegrees,WindSpeedMPH,WindSpeedGustMPH,Humidity,HourlyPrecipIn,Conditions,Clouds,dailyrainin,SoftwareType,DateUTC
2013-03-17 00:00:00,36.1,29.0,30.01,NNE,26,3.0,5.0,75,0.00,,CLR,0.00,VWS V14.01,2013-03-17 05:00:00,
2013-03-17 00:01:00,36.1,29.0,30.01,NE,40,3.0,9.0,75,0.00,,SCT090,0.00,VWS V14.01,2013-03-17 05:01:00,
2013-03-17 00:02:00,36.1,29.0,30.01,NE,55,4.0,9.0,75,0.00,,SCT090,0.00,VWS V14.01,2013-03-17 05:02:00,
2013-03-17 00:04:00,36.1,29.0,30.01,NE,38,0.0,9.0,75,0.00,,SCT090,0.00,VWS V14.01,2013-03-17 05:04:00,
2013-03-17 00:06:00,36.1,29.3,30.01,NE,55,0.0,9.0,76,0.00,,SCT090,0.00,VWS V14.01,2013-03-17 05:06:00,
2013-03-17 00:07:00,36.1,29.3,30.01,NE,48,0.0,9.0,76,0.00,,SCT090,0.00,VWS V14.01,2013-03-17 05:07:00,
2013-03-17 00:09:00,36.1,29.0,30.01,NE,47,1.0,9.0,75,0.00,,SCT090,0.00,VWS V14.01,2013-03-17 05:09:00,
2013-03-17 00:11:00,36.1,29.0,30.01,NE,42,2.0,9.0,75,0.00,,SCT090,0.00,VWS V14.01,2013-03-17 05:11:00,
2013-03-17 00:12:00,36.1,29.0,30.01,NNE,30,0.0,9.0,75,0.00,,SCT090,0.00,VWS V14.01,2013-03-17 05:12:00,
2013-03-17 00:13:00,36.1,29.0,30.01,NNE,30,0.0,9.0,75,0.00,,SCT090,0.00,VWS V14.01,2013-03-17 05:13:00,
2013-03-17 00:14:00,36.1,29.0,30.02,NNE,30,0.0,9.0,75,0.00,,SCT090,0.00,VWS V14.01,2013-03-17 05:14:00,
2013-03-17 00:16:00,36.1,29.0,30.02,NE,36,0.0,9.0,75,0.00,,SCT090,0.00,VWS V14.01,2013-03-17 05:16:00,
2013-03-17 00:17:00,36.1,29.0,30.02,NNE,29,3.0,9.0,75,0.00,,SCT090,0.00,VWS V14.01,2013-03-17 05:17:00,
2013-03-17 00:18:00,36.1,29.0,30.02,ENE,60,0.0,9.0,75,0.00,,SCT090,0.00,VWS V14.01,2013-03-17 05:18:00,
2013-03-17 00:20:00,36.1,29.0,30.02,NNE,13,0.0,9.0,75,0.00,,SCT090,0.00,VWS V14.01,2013-03-17 05:20:00,
2013-03-17 00:21:00,36.1,29.0,30.02,NNE,22,0.0,9.0,75,0.00,,SCT090,0.00,VWS V14.01,2013-03-17 05:21:00,
2013-03-17 00:22:00,36.1,29.0,30.02,NNE,28,0.0,9.0,75,0.00,,SCT090,0.00,VWS V14.01,2013-03-17 05:22:00,
2013-03-17 00:24:00,36.1,29.0,30.02,NNE,28,0.0,9.0,75,0.00,,SCT090,0.00,VWS V14.01,2013-03-17 05:24:00,
2013-03-17 00:25:00,36.1,29.3,30.02,NNE,28,0.0,9.0,76,0.00,,SCT090,0.00,VWS V14.01,2013-03-17 05:25:00,
2013-03-17 00:26:00,36.1,29.3,30.02,NE,34,5.0,9.0,76,0.00,,SCT090,0.00,VWS V14.01,2013-03-17 05:26:00,
2013-03-17 00:27:00,36.1,29.3,30.02,NNE,22,2.0,9.0,76,0.00,,SCT090,0.00,VWS V14.01,2013-03-17 05:27:00,
2013-03-17 00:29:00,36.1,29.3,30.02,NE,40,0.0,9.0,76,0.00,,SCT090,0.00,VWS V14.01,2013-03-17 05:29:00,
2013-03-17 00:30:00,35.9,29.1,30.03,NE,42,5.0,9.0,76,0.00,,OVC041,0.00,VWS V14.01,2013-03-17 05:30:00,
2013-03-17 00:31:00,35.9,29.1,30.03,ENE,57,0.0,6.0,76,0.00,,SCT090,0.00,VWS V14.01,2013-03-17 05:31:00,
2013-03-17 00:32:00,35.9,29.1,30.03,NE,40,3.0,6.0,76,0.00,,SCT090,0.00,VWS V14.01,2013-03-17 05:32:00,
2013-03-17 00:34:00,35.9,29.1,30.03,NE,50,0.0,6.0,76,0.00,,SCT090,0.00,VWS V14.01,2013-03-17 05:34:00,
2013-03-17 00:36:00,35.9,29.1,30.03,NE,56,4.0,6.0,76,0.00,,SCT090,0.00,VWS V14.01,2013-03-17 05:36:00,
2013-03-17 00:37:00,35.9,29.1,30.03,NE,48,0.0,6.0,76,0.00,,SCT090,0.00,VWS V14.01,2013-03-17 05:37:00,
2013-03-17 00:39:00,35.9,29.1,30.03,NE,56,0.0,6.0,76,0.00,,SCT090,0.00,VWS V14.01,2013-03-17 05:39:00,
2013-03-17 00:42:00,35.9,29.1,30.03,East,84,5.0,6.0,76,0.00,,SCT090,0.00,VWS V14.01,2013-03-17 05:42:00,
2013-03-17 00:44:00,35.8,29.0,30.02,NE,35,3.0,6.0,76,0.00,,SCT090,0.00,VWS V14.01,2013-03-17 05:44:00,
2013-03-17 00:47:00,35.8,29.0,30.02,NE,35,4.0,7.0,76,0.00,,BKN120,0.00,VWS V14.01,2013-03-17 05:47:00,
2013-03-17 00:48:00,35.8,29.0,30.02,NNE,28,7.0,7.0,76,0.00,,BKN120,0.00,VWS V14.01,2013-03-17 05:48:00,
2013-03-17 00:50:00,35.8,28.7,30.02,NNE,19,0.0,7.0,75,0.00,,BKN120,0.00,VWS V14.01,2013-03-17 05:50:00,
2013-03-17 00:52:00,35.8,29.0,30.02,NNE,17,0.0,7.0,76,0.00,,BKN120,0.00,VWS V14.01,2013-03-17 05:52:00,
2013-03-17 00:53:00,35.8,29.0,30.02,NNE,17,0.0,7.0,76,0.00,,BKN120,0.00,VWS V14.01,2013-03-17 05:53:00,
2013-03-17 00:55:00,35.8,29.0,30.02,NNE,17,0.0,7.0,76,0.00,,BKN120,0.00,VWS V14.01,2013-03-17 05:55:00,
2013-03-17 00:57:00,35.8,29.0,30.02,NNE,17,0.0,7.0,76,0.00,,BKN120,0.00,VWS V14.01,2013-03-17 05:57:00,
2013-03-17 00:58:00,35.8,29.0,30.02,NNE,17,0.0,7.0,76,0.00,,BKN120,0.00,VWS V14.01,2013-03-17 05:58:00,
2013-03-17 01:00:00,35.8,29.0,30.03,ENE,58,0.0,7.0,76,0.00,,BKN120,0.00,VWS V14.01,2013-03-17 06:00:00,
2013-03-17 01:02:00,35.8,29.0,30.03,NE,45,2.0,6.0,76,0.00,,OVC120,0.00,VWS V14.01,2013-03-17 06:02:00,
2013-03-17 01:03:00,35.8,29.0,30.03,NE,51,5.0,8.0,76,0.00,,OVC120,0.00,VWS V14.01,2013-03-17 06:03:00,
2013-03-17 01:05:00,35.8,29.0,30.03,NNE,26,4.0,8.0,76,0.00,,OVC120,0.00,VWS V14.01,2013-03-17 06:05:00,
2013-03-17 01:07:00,35.7,28.9,30.03,ENE,63,2.0,8.0,76,0.00,,OVC120,0.00,VWS V14.01,2013-03-17 06:07:00,
2013-03-17 01:08:00,35.7,28.9,30.03,ENE,76,2.0,8.0,76,0.00,,OVC120,0.00,VWS V14.01,2013-03-17 06:08:00,
2013-03-17 01:10:00,35.7,28.9,30.03,NE,40,3.0,8.0,76,0.00,,OVC120,0.00,VWS V14.01,2013-03-17 06:10:00,
2013-03-17 01:13:00,35.7,29.2,30.03,NE,48,0.0,8.0,77,0.00,,OVC120,0.00,VWS V14.01,2013-03-17 06:13:00,
2013-03-17 01:15:00,35.7,29.2,30.03,NE,40,3.0,9.0,77,0.00,,OVC120,0.00,VWS V14.01,2013-03-17 06:15:00,
2013-03-17 01:18:00,35.5,29.0,30.03,NNE,31,5.0,9.0,77,0.00,,OVC120,0.00,VWS V14.01,2013-03-17 06:18:00,
2013-03-17 01:20:00,35.5,29.0,30.03,NE,56,6.0,14.0,77,0.00,,OVC120,0.00,VWS V14.01,2013-03-17 06:20:00,
2013-03-17 01:23:00,35.4,28.9,30.03,ENE,61,10.0,14.0,77,0.00,,OVC120,0.00,VWS V14.01,2013-03-17 06:23:00,
2013-03-17 01:24:00,35.4,28.9,30.03,ENE,71,9.0,14.0,77,0.00,,OVC120,0.00,VWS V14.01,2013-03-17 06:24:00,
2013-03-17 01:25:00,35.4,28.9,30.03,NNE,22,7.0,14.0,77,0.00,,OVC120,0.00,VWS V14.01,2013-03-17 06:25:00,
2013-03-17 01:28:00,35.2,28.7,30.03,NE,39,10.0,14.0,77,0.00,,OVC120,0.00,VWS V14.01,2013-03-17 06:28:00,
2013-03-17 01:29:00,35.2,28.7,30.03,NE,40,1.0,14.0,77,0.00,,OVC120,0.00,VWS V14.01,2013-03-17 06:29:00,
2013-03-17 01:30:00,35.2,28.7,30.02,NE,40,8.0,8.0,77,0.00,,OVC120,0.00,VWS V14.01,2013-03-17 06:30:00,
2013-03-17 01:33:00,35.2,29.0,30.02,NNE,29,2.0,9.0,78,0.00,,OVC120,0.00,VWS V14.01,2013-03-17 06:33:00,
2013-03-17 01:34:00,35.2,29.0,30.02,ENE,57,6.0,9.0,78,0.00,,OVC120,0.00,VWS V14.01,2013-03-17 06:34:00,
2013-03-17 01:36:00,35.2,29.0,30.02,NNE,21,4.0,12.0,78,0.00,,OVC120,0.00,VWS V14.01,2013-03-17 06:36:00,
2013-03-17 01:38:00,35.1,28.9,30.02,ENE,63,2.0,12.0,78,0.00,,OVC120,0.00,VWS V14.01,2013-03-17 06:38:00,
2013-03-17 01:39:00,35.1,28.9,30.02,NE,52,6.0,12.0,78,0.00,,OVC120,0.00,VWS V14.01,2013-03-17 06:39:00,
2013-03-17 01:41:00,35.1,28.9,30.02,NE,38,1.0,12.0,78,0.00,,OVC120,0.00,VWS V14.01,2013-03-17 06:41:00,
2013-03-17 01:44:00,35.1,28.9,30.02,NE,55,4.0,12.0,78,0.00,,OVC120,0.00,VWS V14.01,2013-03-17 06:44:00,
2013-03-17 01:46:00,34.9,28.8,30.03,NNE,24,0.0,12.0,78,0.00,,OVC110,0.00,VWS V14.01,2013-03-17 06:46:00,
2013-03-17 01:49:00,34.9,28.8,30.03,ENE,69,4.0,12.0,78,0.00,,OVC110,0.00,VWS V14.01,2013-03-17 06:49:00,
2013-03-17 01:50:00,34.9,28.8,30.03,NE,38,0.0,12.0,78,0.00,,OVC110,0.00,VWS V14.01,2013-03-17 06:50:00,
2013-03-17 01:51:00,34.9,28.8,30.03,NNE,20,2.0,12.0,78,0.00,,OVC110,0.00,VWS V14.01,2013-03-17 06:51:00,
2013-03-17 01:54:00,34.8,28.3,30.03,NE,42,0.0,13.0,77,0.00,,OVC110,0.00,VWS V14.01,2013-03-17 06:54:00,
2013-03-17 01:55:00,34.8,28.3,30.03,NE,41,4.0,13.0,77,0.00,,OVC110,0.00,VWS V14.01,2013-03-17 06:55:00,
2013-03-17 01:56:00,34.8,28.3,30.03,NE,34,6.0,13.0,77,0.00,,OVC110,0.00,VWS V14.01,2013-03-17 06:56:00,
2013-03-17 01:59:00,34.8,28.6,30.03,NNE,21,6.0,13.0,78,0.00,,OVC110,0.00,VWS V14.01,2013-03-17 06:59:00,
2013-03-17 02:00:00,34.8,28.6,30.03,NNE,18,2.0,13.0,78,0.00,,OVC110,0.00,VWS V14.01,2013-03-17 07:00:00,
2013-03-17 02:01:00,34.8,28.6,30.03,NE,48,5.0,7.0,78,0.00,,OVC110,0.00,VWS V14.01,2013-03-17 07:01:00,
2013-03-17 02:04:00,34.6,28.5,30.03,NE,47,5.0,11.0,78,0.00,,OVC110,0.00,VWS V14.01,2013-03-17 07:04:00,
2013-03-17 02:05:00,34.6,28.5,30.03,NE,35,0.0,11.0,78,0.00,,OVC110,0.00,VWS V14.01,2013-03-17 07:05:00,
2013-03-17 02:06:00,34.6,28.5,30.03,NNW,337,3.0,11.0,78,0.00,,OVC110,0.00,VWS V14.01,2013-03-17 07:06:00,
2013-03-17 02:09:00,34.6,28.5,30.03,NE,47,7.0,11.0,78,0.00,,OVC110,0.00,VWS V14.01,2013-03-17 07:09:00,
2013-03-17 02:10:00,34.6,28.5,30.03,NE,38,11.0,11.0,78,0.00,,OVC110,0.00,VWS V14.01,2013-03-17 07:10:00,
2013-03-17 02:11:00,34.5,28.4,30.03,NNE,24,0.0,11.0,78,0.00,,OVC110,0.00,VWS V14.01,2013-03-17 07:11:00,
2013-03-17 02:14:00,34.3,28.2,30.03,NE,39,4.0,11.0,78,0.00,,OVC110,0.00,VWS V14.01,2013-03-17 07:14:00,
2013-03-17 02:15:00,34.3,28.2,30.03,ENE,62,9.0,13.0,78,0.00,,OVC110,0.00,VWS V14.01,2013-03-17 07:15:00,
2013-03-17 02:17:00,34.3,28.2,30.03,NE,47,0.0,13.0,78,0.00,,OVC110,0.00,VWS V14.01,2013-03-17 07:17:00,
2013-03-17 02:20:00,34.2,28.1,30.03,NE,40,6.0,13.0,78,0.00,,OVC110,0.00,VWS V14.01,2013-03-17 07:20:00,
2013-03-17 02:23:00,34.2,28.1,30.03,NNE,26,1.0,13.0,78,0.00,,OVC110,0.00,VWS V14.01,2013-03-17 07:23:00,
2013-03-17 02:25:00,34.2,28.1,30.03,NE,41,0.0,13.0,78,0.00,,OVC110,0.00,VWS V14.01,2013-03-17 07:25:00,
2013-03-17 02:26:00,34.0,27.9,30.03,NE,42,5.0,13.0,78,0.00,,OVC110,0.00,VWS V14.01,2013-03-17 07:26:00,
2013-03-17 02:28:00,34.0,27.9,30.03,NNE,21,6.0,13.0,78,0.00,,OVC110,0.00,VWS V14.01,2013-03-17 07:28:00,
2013-03-17 02:30:00,34.0,27.9,30.05,NE,44,7.0,13.0,78,0.00,,OVC110,0.00,VWS V14.01,2013-03-17 07:30:00,
2013-03-17 02:31:00,34.0,27.9,30.05,NE,42,1.0,5.0,78,0.00,,OVC110,0.00,VWS V14.01,2013-03-17 07:31:00,
2013-03-17 02:33:00,33.9,27.8,30.05,NNE,30,3.0,10.0,78,0.00,,OVC110,0.00,VWS V14.01,2013-03-17 07:33:00,
2013-03-17 02:35:00,33.9,27.8,30.05,NE,40,2.0,10.0,78,0.00,,OVC110,0.00,VWS V14.01,2013-03-17 07:35:00,
2013-03-17 02:36:00,33.9,27.8,30.05,NNE,30,0.0,10.0,78,0.00,,OVC110,0.00,VWS V14.01,2013-03-17 07:36:00,
2013-03-17 02:37:00,33.9,27.8,30.05,NNE,30,0.0,10.0,78,0.00,,OVC110,0.00,VWS V14.01,2013-03-17 07:37:00,
2013-03-17 02:38:00,33.9,27.8,30.05,North,9,8.0,10.0,78,0.00,,OVC110,0.00,VWS V14.01,2013-03-17 07:38:00,
2013-03-17 02:40:00,33.9,28.1,30.05,NE,36,6.0,11.0,79,0.00,,OVC110,0.00,VWS V14.01,2013-03-17 07:40:00,
2013-03-17 02:41:00,33.9,28.1,30.05,NE,50,0.0,11.0,79,0.00,,OVC110,0.00,VWS V14.01,2013-03-17 07:41:00,
2013-03-17 02:42:00,33.9,28.1,30.05,NE,50,0.0,11.0,79,0.00,,OVC110,0.00,VWS V14.01,2013-03-17 07:42:00,
2013-03-17 02:43:00,33.9,28.1,30.05,NNE,16,0.0,11.0,79,0.00,,OVC110,0.00,VWS V14.01,2013-03-17 07:43:00,
2013-03-17 02:45:00,33.9,28.1,30.05,NNE,17,4.0,11.0,79,0.00,,OVC110,0.00,VWS V14.01,2013-03-17 07:45:00,
2013-03-17 02:46:00,33.9,28.1,30.05,NNE,17,0.0,11.0,79,0.00,,OVC110,0.00,VWS V14.01,2013-03-17 07:46:00,
2013-03-17 02:47:00,33.9,28.1,30.05,NNE,12,0.0,11.0,79,0.00,,OVC110,0.00,VWS V14.01,2013-03-17 07:47:00,
2013-03-17 02:48:00,33.9,28.1,30.05,NNE,16,0.0,11.0,79,0.00,,OVC110,0.00,VWS V14.01,2013-03-17 07:48:00,
2013-03-17 02:50:00,33.9,28.1,30.05,North,5,3.0,11.0,79,0.00,,OVC110,0.00,VWS V14.01,2013-03-17 07:50:00,
2013-03-17 02:52:00,33.9,28.1,30.05,NE,46,6.0,11.0,79,0.00,,OVC110,0.00,VWS V14.01,2013-03-17 07:52:00,
2013-03-17 02:53:00,33.7,27.9,30.05,NNE,28,0.0,11.0,79,0.00,,OVC110,0.00,VWS V14.01,2013-03-17 07:53:00,
2013-03-17 02:55:00,33.7,27.9,30.05,NE,44,0.0,11.0,79,0.00,,OVC110,0.00,VWS V14.01,2013-03-17 07:55:00,
2013-03-17 02:57:00,33.7,27.9,30.05,North,10,3.0,11.0,79,0.00,,OVC110,0.00,VWS V14.01,2013-03-17 07:57:00,
2013-03-17 02:59:00,33.7,27.9,30.05,North,9,0.0,11.0,79,0.00,,OVC110,0.00,VWS V14.01,2013-03-17 07:59:00,
2013-03-17 03:00:00,33.7,27.9,30.05,NE,34,2.0,11.0,79,0.00,,OVC110,0.00,VWS V14.01,2013-03-17 08:00:00,
2013-03-17 03:02:00,33.7,27.9,30.05,NE,51,0.0,3.0,79,0.00,,OVC110,0.00,VWS V14.01,2013-03-17 08:02:00,
2013-03-17 03:05:00,33.7,27.9,30.05,NNE,31,4.0,9.0,79,0.00,,OVC110,0.00,VWS V14.01,2013-03-17 08:05:00,
2013-03-17 03:07:00,33.6,27.8,30.05,NE,36,0.0,10.0,79,0.00,,OVC110,0.00,VWS V14.01,2013-03-17 08:07:00,
2013-03-17 03:08:00,33.6,27.8,30.05,NNE,18,1.0,10.0,79,0.00,,OVC110,0.00,VWS V14.01,2013-03-17 08:08:00,
2013-03-17 03:10:00,33.6,27.8,30.05,ENE,71,2.0,12.0,79,0.00,,OVC110,0.00,VWS V14.01,2013-03-17 08:10:00,
2013-03-17 03:13:00,33.6,27.8,30.05,NNE,33,4.0,12.0,79,0.00,,OVC110,0.00,VWS V14.01,2013-03-17 08:13:00,
2013-03-17 03:15:00,33.6,27.8,30.05,NE,35,0.0,12.0,79,0.00,,OVC110,0.00,VWS V14.01,2013-03-17 08:15:00,
2013-03-17 03:18:00,33.6,28.1,30.05,NE,35,0.0,12.0,80,0.00,,OVC110,0.00,VWS V14.01,2013-03-17 08:18:00,
2013-03-17 03:20:00,33.6,28.1,30.05,NNE,28,0.0,12.0,80,0.00,,OVC110,0.00,VWS V14.01,2013-03-17 08:20:00,
2013-03-17 03:23:00,33.4,27.9,30.05,NE,40,4.0,12.0,80,0.00,,OVC110,0.00,VWS V14.01,2013-03-17 08:23:00,
2013-03-17 03:25:00,33.4,27.9,30.05,NE,37,0.0,12.0,80,0.00,,OVC110,0.00,VWS V14.01,2013-03-17 08:25:00,
2013-03-17 03:26:00,33.4,27.9,30.05,NE,38,0.0,12.0,80,0.00,,OVC110,0.00,VWS V14.01,2013-03-17 08:26:00,
2013-03-17 03:28:00,33.4,27.9,30.05,East,79,0.0,12.0,80,0.00,,OVC110,0.00,VWS V14.01,2013-03-17 08:28:00,
2013-03-17 03:29:00,33.4,27.6,30.05,NNW,346,0.0,12.0,79,0.00,,OVC110,0.00,VWS V14.01,2013-03-17 08:29:00,
2013-03-17 03:30:00,33.4,27.6,30.06,NE,49,3.0,12.0,79,0.00,,OVC035,0.00,VWS V14.01,2013-03-17 08:30:00,
2013-03-17 03:31:00,33.4,27.6,30.06,NNW,348,0.0,3.0,79,0.00,,OVC110,0.00,VWS V14.01,2013-03-17 08:31:00,
2013-03-17 03:33:00,33.4,27.6,30.06,NNE,26,5.0,11.0,79,0.00,,OVC110,0.00,VWS V14.01,2013-03-17 08:33:00,
2013-03-17 03:34:00,33.4,27.6,30.06,NNE,19,3.0,11.0,79,0.00,,OVC110,0.00,VWS V14.01,2013-03-17 08:34:00,
2013-03-17 03:36:00,33.4,27.6,30.06,NE,52,2.0,11.0,79,0.00,,OVC110,0.00,VWS V14.01,2013-03-17 08:36:00,
2013-03-17 03:38:00,33.3,27.5,30.06,NE,42,0.0,11.0,79,0.00,,OVC110,0.00,VWS V14.01,2013-03-17 08:38:00,
2013-03-17 03:39:00,33.3,27.5,30.06,NE,53,3.0,11.0,79,0.00,,OVC110,0.00,VWS V14.01,2013-03-17 08:39:00,
2013-03-17 03:41:00,33.3,27.5,30.06,NE,46,0.0,11.0,79,0.00,,OVC110,0.00,VWS V14.01,2013-03-17 08:41:00,
2013-03-17 03:42:00,33.3,27.5,30.06,NNE,28,4.0,11.0,79,0.00,,OVC110,0.00,VWS V14.01,2013-03-17 08:42:00,
2013-03-17 03:43:00,33.3,27.5,30.06,NNE,15,0.0,11.0,79,0.00,,OVC110,0.00,VWS V14.01,2013-03-17 08:43:00,
2013-03-17 03:44:00,33.4,27.6,30.05,North,360,0.0,11.0,79,0.00,,OVC110,0.00,VWS V14.01,2013-03-17 08:44:00,
2013-03-17 03:47:00,33.4,27.6,30.05,NNE,32,3.0,11.0,79,0.00,,BKN110,0.00,VWS V14.01,2013-03-17 08:47:00,
2013-03-17 03:48:00,33.3,27.5,30.05,NNE,32,1.0,11.0,79,0.00,,BKN110,0.00,VWS V14.01,2013-03-17 08:48:00,
2013-03-17 03:49:00,33.3,27.5,30.05,NNE,21,4.0,11.0,79,0.00,,BKN110,0.00,VWS V14.01,2013-03-17 08:49:00,
2013-03-17 03:52:00,33.3,27.5,30.05,NE,42,2.0,11.0,79,0.00,,BKN110,0.00,VWS V14.01,2013-03-17 08:52:00,
2013-03-17 03:53:00,33.3,27.5,30.05,NNE,32,1.0,11.0,79,0.00,,BKN110,0.00,VWS V14.01,2013-03-17 08:53:00,
2013-03-17 03:55:00,33.3,27.5,30.05,NNE,13,0.0,11.0,79,0.00,,BKN110,0.00,VWS V14.01,2013-03-17 08:55:00,
2013-03-17 03:57:00,33.3,27.5,30.05,NNE,21,2.0,11.0,79,0.00,,BKN110,0.00,VWS V14.01,2013-03-17 08:57:00,
2013-03-17 03:58:00,33.3,27.5,30.05,NNE,26,4.0,11.0,79,0.00,,BKN110,0.00,VWS V14.01,2013-03-17 08:58:00,
2013-03-17 04:00:00,33.3,27.5,30.03,NE,54,1.0,11.0,79,0.00,,BKN110,0.00,VWS V14.01,2013-03-17 09:00:00,
2013-03-17 04:02:00,33.3,27.5,30.03,NE,34,4.0,9.0,79,0.00,,BKN090,0.00,VWS V14.01,2013-03-17 09:02:00,
2013-03-17 04:03:00,33.1,27.3,30.03,NE,42,9.0,9.0,79,0.00,,BKN090,0.00,VWS V14.01,2013-03-17 09:03:00,
2013-03-17 04:05:00,33.1,27.3,30.03,NE,53,1.0,9.0,79,0.00,,BKN090,0.00,VWS V14.01,2013-03-17 09:05:00,
2013-03-17 04:07:00,33.1,27.6,30.03,NE,37,3.0,9.0,80,0.00,,BKN090,0.00,VWS V14.01,2013-03-17 09:07:00,
2013-03-17 04:09:00,33.1,27.6,30.03,NE,36,0.0,9.0,80,0.00,,BKN090,0.00,VWS V14.01,2013-03-17 09:09:00,
2013-03-17 04:10:00,33.1,27.6,30.03,NE,36,0.0,9.0,80,0.00,,BKN090,0.00,VWS V14.01,2013-03-17 09:10:00,
2013-03-17 04:12:00,33.1,27.6,30.03,NNE,22,0.0,9.0,80,0.00,,BKN090,0.00,VWS V14.01,2013-03-17 09:12:00,
2013-03-17 04:13:00,33.1,27.6,30.03,NNE,22,0.0,9.0,80,0.00,,BKN090,0.00,VWS V14.01,2013-03-17 09:13:00,
2013-03-17 04:14:00,33.1,27.6,30.03,NNE,22,0.0,9.0,80,0.00,,BKN090,0.00,VWS V14.01,2013-03-17 09:14:00,
2013-03-17 04:15:00,33.1,27.6,30.05,NE,44,0.0,9.0,80,0.00,,BKN090,0.00,VWS V14.01,2013-03-17 09:15:00,
2013-03-17 04:17:00,33.1,27.6,30.05,North,355,0.0,9.0,80,0.00,,BKN090,0.00,VWS V14.01,2013-03-17 09:17:00,
2013-03-17 04:18:00,33.1,27.6,30.05,NNW,331,0.0,9.0,80,0.00,,BKN090,0.00,VWS V14.01,2013-03-17 09:18:00,
2013-03-17 04:19:00,33.1,27.6,30.05,NE,38,5.0,9.0,80,0.00,,BKN090,0.00,VWS V14.01,2013-03-17 09:19:00,
2013-03-17 04:20:00,33.1,27.6,30.05,NNW,331,2.0,9.0,80,0.00,,BKN090,0.00,VWS V14.01,2013-03-17 09:20:00,
2013-03-17 04:23:00,33.1,27.3,30.05,North,355,0.0,9.0,79,0.00,,BKN090,0.00,VWS V14.01,2013-03-17 09:23:00,
2013-03-17 04:24:00,33.1,27.6,30.05,NNE,22,0.0,9.0,80,0.00,,BKN090,0.00,VWS V14.01,2013-03-17 09:24:00,
2013-03-17 04:25:00,33.1,27.3,30.05,ENE,61,3.0,9.0,79,0.00,,BKN090,0.00,VWS V14.01,2013-03-17 09:25:00,
2013-03-17 04:28:00,33.1,27.3,30.05,NNE,15,0.0,9.0,79,0.00,,BKN090,0.00,VWS V14.01,2013-03-17 09:28:00,
2013-03-17 04:29:00,33.1,27.0,30.05,NE,34,3.0,9.0,78,0.00,,BKN090,0.00,VWS V14.01,2013-03-17 09:29:00,
2013-03-17 04:30:00,33.1,27.0,30.05,NNW,346,0.0,0.0,78,0.00,,BKN090,0.00,VWS V14.01,2013-03-17 09:30:00,
2013-03-17 04:33:00,33.1,27.0,30.05,North,360,4.0,7.0,78,0.00,,BKN090,0.00,VWS V14.01,2013-03-17 09:33:00,
2013-03-17 04:34:00,33.1,26.7,30.05,NE,34,11.0,11.0,77,0.00,,BKN090,0.00,VWS V14.01,2013-03-17 09:34:00,
2013-03-17 04:36:00,33.1,26.7,30.05,NE,46,6.0,11.0,77,0.00,,BKN090,0.00,VWS V14.01,2013-03-17 09:36:00,
2013-03-17 04:38:00,33.1,26.4,30.05,NNE,19,3.0,12.0,76,0.00,,BKN090,0.00,VWS V14.01,2013-03-17 09:38:00,
2013-03-17 04:39:00,33.1,26.4,30.05,North,5,6.0,13.0,76,0.00,,BKN090,0.00,VWS V14.01,2013-03-17 09:39:00,
2013-03-17 04:41:00,33.1,26.4,30.05,NNE,16,0.0,13.0,76,0.00,,BKN090,0.00,VWS V14.01,2013-03-17 09:41:00,
2013-03-17 04:43:00,33.1,26.4,30.05,NNE,27,0.0,14.0,76,0.00,,BKN090,0.00,VWS V14.01,2013-03-17 09:43:00,
2013-03-17 04:44:00,33.1,26.4,30.05,NNE,32,0.0,14.0,76,0.00,,BKN090,0.00,VWS V14.01,2013-03-17 09:44:00,
2013-03-17 04:46:00,33.1,26.0,30.05,NE,42,6.0,14.0,75,0.00,,OVC100,0.00,VWS V14.01,2013-03-17 09:46:00,
2013-03-17 04:48:00,33.1,26.0,30.05,NNE,20,0.0,14.0,75,0.00,,OVC100,0.00,VWS V14.01,2013-03-17 09:48:00,
2013-03-17 04:49:00,33.0,26.0,30.05,NNE,29,7.0,14.0,75,0.00,,OVC100,0.00,VWS V14.01,2013-03-17 09:49:00,
2013-03-17 04:52:00,33.0,26.0,30.05,NNE,32,0.0,14.0,75,0.00,,OVC100,0.00,VWS V14.01,2013-03-17 09:52:00,
2013-03-17 04:53:00,33.0,26.0,30.05,NNE,27,9.0,14.0,75,0.00,,OVC100,0.00,VWS V14.01,2013-03-17 09:53:00,
2013-03-17 04:54:00,33.0,26.0,30.05,NE,52,4.0,14.0,75,0.00,,OVC100,0.00,VWS V14.01,2013-03-17 09:54:00,
2013-03-17 04:57:00,33.0,26.0,30.05,ENE,64,0.0,14.0,75,0.00,,OVC100,0.00,VWS V14.01,2013-03-17 09:57:00,
2013-03-17 04:58:00,33.0,26.0,30.05,ENE,59,2.0,14.0,75,0.00,,OVC100,0.00,VWS V14.01,2013-03-17 09:58:00,
2013-03-17 04:59:00,33.0,26.0,30.05,NNE,14,4.0,14.0,75,0.00,,OVC100,0.00,VWS V14.01,2013-03-17 09:59:00,
2013-03-17 05:00:00,33.0,26.0,30.05,NNE,21,8.0,14.0,75,0.00,,OVC035,0.00,VWS V14.01,2013-03-17 10:00:00,
2013-03-17 05:02:00,33.0,26.0,30.05,ENE,61,0.0,9.0,75,0.00,,OVC100,0.00,VWS V14.01,2013-03-17 10:02:00,
2013-03-17 05:03:00,33.0,26.0,30.05,NE,44,0.0,9.0,75,0.00,,OVC100,0.00,VWS V14.01,2013-03-17 10:03:00,
2013-03-17 05:04:00,33.0,26.0,30.05,NE,54,0.0,9.0,75,0.00,,OVC100,0.00,VWS V14.01,2013-03-17 10:04:00,
2013-03-17 05:05:00,33.0,26.0,30.05,NE,56,3.0,9.0,75,0.00,,OVC100,0.00,VWS V14.01,2013-03-17 10:05:00,
2013-03-17 05:07:00,32.8,25.8,30.05,NE,51,4.0,11.0,75,0.00,,OVC100,0.00,VWS V14.01,2013-03-17 10:07:00,
2013-03-17 05:09:00,32.8,25.8,30.05,NE,39,4.0,11.0,75,0.00,,OVC100,0.00,VWS V14.01,2013-03-17 10:09:00,
2013-03-17 05:10:00,32.8,25.8,30.05,NE,37,10.0,11.0,75,0.00,,OVC100,0.00,VWS V14.01,2013-03-17 10:10:00,
2013-03-17 05:12:00,32.8,25.8,30.05,ENE,61,0.0,11.0,75,0.00,,OVC100,0.00,VWS V14.01,2013-03-17 10:12:00,
2013-03-17 05:14:00,32.8,25.4,30.05,NE,55,0.0,11.0,74,0.00,,OVC100,0.00,VWS V14.01,2013-03-17 10:14:00,
2013-03-17 05:15:00,32.8,25.4,30.05,NE,55,3.0,11.0,74,0.00,,OVC100,0.00,VWS V14.01,2013-03-17 10:15:00,
2013-03-17 05:17:00,32.8,25.1,30.05,NE,36,0.0,13.0,73,0.00,,OVC100,0.00,VWS V14.01,2013-03-17 10:17:00,
2013-03-17 05:19:00,32.7,25.0,30.05,East,89,1.0,13.0,73,0.00,,OVC100,0.00,VWS V14.01,2013-03-17 10:19:00,
2013-03-17 05:20:00,32.7,25.0,30.05,NE,47,5.0,13.0,73,0.00,,OVC100,0.00,VWS V14.01,2013-03-17 10:20:00,
2013-03-17 05:23:00,32.7,25.0,30.05,NNE,24,0.0,13.0,73,0.00,,OVC100,0.00,VWS V14.01,2013-03-17 10:23:00,
2013-03-17 05:25:00,32.7,25.0,30.05,NNE,14,3.0,13.0,73,0.00,,OVC100,0.00,VWS V14.01,2013-03-17 10:25:00,
2013-03-17 05:28:00,32.7,25.0,30.05,NE,44,0.0,13.0,73,0.00,,OVC100,0.00,VWS V14.01,2013-03-17 10:28:00,
2013-03-17 05:30:00,32.7,25.0,30.05,ENE,61,2.0,13.0,73,0.00,,OVC100,0.00,VWS V14.01,2013-03-17 10:30:00,
2013-03-17 05:33:00,32.7,25.0,30.05,NE,36,0.0,3.0,73,0.00,,OVC100,0.00,VWS V14.01,2013-03-17 10:33:00,
2013-03-17 05:35:00,32.7,25.0,30.05,NNE,19,4.0,6.0,73,0.00,,OVC100,0.00,VWS V14.01,2013-03-17 10:35:00,
2013-03-17 05:38:00,32.7,25.0,30.05,NNE,26,0.0,11.0,73,0.00,,OVC100,0.00,VWS V14.01,2013-03-17 10:38:00,
2013-03-17 05:40:00,32.6,24.9,30.05,NNE,28,7.0,12.0,73,0.00,,OVC100,0.00,VWS V14.01,2013-03-17 10:40:00,
2013-03-17 05:42:00,32.6,24.9,30.05,NNE,29,10.0,12.0,73,0.00,,OVC100,0.00,VWS V14.01,2013-03-17 10:42:00,
2013-03-17 05:43:00,32.6,24.6,30.05,NE,38,0.0,12.0,72,0.00,,OVC100,0.00,VWS V14.01,2013-03-17 10:43:00,
2013-03-17 05:45:00,32.6,24.6,30.05,NNE,26,3.0,13.0,72,0.00,,OVC100,0.00,VWS V14.01,2013-03-17 10:45:00,
2013-03-17 05:48:00,32.4,24.7,30.05,NE,40,2.0,13.0,73,0.00,,OVC110,0.00,VWS V14.01,2013-03-17 10:48:00,
2013-03-17 05:50:00,32.4,24.7,30.05,NNE,14,5.0,13.0,73,0.00,,OVC110,0.00,VWS V14.01,2013-03-17 10:50:00,
2013-03-17 05:53:00,32.4,24.7,30.05,NNE,31,4.0,13.0,73,0.00,,OVC110,0.00,VWS V14.01,2013-03-17 10:53:00,
2013-03-17 05:55:00,32.4,24.7,30.05,NNE,24,3.0,13.0,73,0.00,,OVC110,0.00,VWS V14.01,2013-03-17 10:55:00,
2013-03-17 05:58:00,32.4,24.7,30.05,NNE,32,4.0,14.0,73,0.00,,OVC110,0.00,VWS V14.01,2013-03-17 10:58:00,
2013-03-17 05:59:00,32.4,24.7,30.05,NNE,26,0.0,14.0,73,0.00,,OVC110,0.00,VWS V14.01,2013-03-17 10:59:00,
2013-03-17 06:00:00,32.4,24.7,30.05,NNE,30,3.0,4.0,73,0.00,,OVC110,0.00,VWS V14.01,2013-03-17 11:00:00,
2013-03-17 06:03:00,32.4,25.0,30.05,NNE,28,0.0,5.0,74,0.00,,OVC110,0.00,VWS V14.01,2013-03-17 11:03:00,
2013-03-17 06:04:00,32.4,25.0,30.05,NNE,28,0.0,5.0,74,0.00,,OVC110,0.00,VWS V14.01,2013-03-17 11:04:00,
2013-03-17 06:05:00,32.4,25.0,30.05,NNE,13,0.0,5.0,74,0.00,,OVC110,0.00,VWS V14.01,2013-03-17 11:05:00,
2013-03-17 06:08:00,32.4,25.0,30.05,NNE,26,12.0,12.0,74,0.00,,OVC110,0.00,VWS V14.01,2013-03-17 11:08:00,
2013-03-17 06:09:00,32.4,25.0,30.05,NE,43,5.0,15.0,74,0.00,,OVC110,0.00,VWS V14.01,2013-03-17 11:09:00,
2013-03-17 06:10:00,32.3,25.0,30.05,ENE,74,9.0,15.0,74,0.00,,OVC110,0.00,VWS V14.01,2013-03-17 11:10:00,
2013-03-17 06:13:00,32.3,25.3,30.05,NE,44,0.0,15.0,75,0.00,,OVC110,0.00,VWS V14.01,2013-03-17 11:13:00,
2013-03-17 06:14:00,32.3,25.3,30.05,NE,41,0.0,15.0,75,0.00,,OVC110,0.00,VWS V14.01,2013-03-17 11:14:00,
2013-03-17 06:15:00,32.3,25.3,30.05,NNE,27,0.0,15.0,75,0.00,,OVC110,0.00,VWS V14.01,2013-03-17 11:15:00,
2013-03-17 06:16:00,32.3,25.3,30.05,NE,47,7.0,15.0,75,0.00,,OVC110,0.00,VWS V14.01,2013-03-17 11:16:00,
2013-03-17 06:18:00,32.3,25.3,30.05,NE,36,3.0,15.0,75,0.00,,OVC110,0.00,VWS V14.01,2013-03-17 11:18:00,
2013-03-17 06:19:00,32.3,25.6,30.05,North,5,0.0,15.0,76,0.00,,OVC110,0.00,VWS V14.01,2013-03-17 11:19:00,
2013-03-17 06:20:00,32.3,25.6,30.05,NNE,30,4.0,15.0,76,0.00,,OVC110,0.00,VWS V14.01,2013-03-17 11:20:00,
2013-03-17 06:22:00,32.3,25.6,30.05,ENE,59,1.0,15.0,76,0.00,,OVC110,0.00,VWS V14.01,2013-03-17 11:22:00,
2013-03-17 06:23:00,32.3,25.6,30.05,NNE,19,0.0,15.0,76,0.00,,OVC110,0.00,VWS V14.01,2013-03-17 11:23:00,
2013-03-17 06:24:00,32.3,25.6,30.05,NE,55,4.0,15.0,76,0.00,,OVC110,0.00,VWS V14.01,2013-03-17 11:24:00,
2013-03-17 06:26:00,32.3,25.6,30.05,NNE,22,0.0,15.0,76,0.00,,OVC110,0.00,VWS V14.01,2013-03-17 11:26:00,
2013-03-17 06:28:00,32.3,25.9,30.05,North,355,0.0,15.0,77,0.00,,OVC110,0.00,VWS V14.01,2013-03-17 11:28:00,
2013-03-17 06:29:00,32.3,25.9,30.07,North,5,1.0,15.0,77,0.00,,OVC110,0.00,VWS V14.01,2013-03-17 11:29:00,
2013-03-17 06:30:00,32.3,25.9,30.07,North,355,0.0,15.0,77,0.00,,OVC035,0.00,VWS V14.01,2013-03-17 11:30:00,
2013-03-17 06:32:00,32.3,25.9,30.07,NNE,26,3.0,9.0,77,0.00,,OVC110,0.00,VWS V14.01,2013-03-17 11:32:00,
2013-03-17 06:33:00,32.3,25.9,30.07,NE,38,5.0,11.0,77,0.00,,OVC110,0.00,VWS V14.01,2013-03-17 11:33:00,
2013-03-17 06:35:00,32.3,26.2,30.07,North,9,4.0,11.0,78,0.00,,OVC110,0.00,VWS V14.01,2013-03-17 11:35:00,
2013-03-17 06:38:00,32.3,26.2,30.07,NNE,12,0.0,11.0,78,0.00,,OVC110,0.00,VWS V14.01,2013-03-17 11:38:00,
2013-03-17 06:39:00,32.3,26.2,30.07,NNE,13,0.0,11.0,78,0.00,,OVC110,0.00,VWS V14.01,2013-03-17 11:39:00,
2013-03-17 06:40:00,32.3,26.2,30.07,North,11,0.0,11.0,78,0.00,,OVC110,0.00,VWS V14.01,2013-03-17 11:40:00,
2013-03-17 06:43:00,32.3,26.5,30.07,NNE,28,0.0,11.0,79,0.00,,OVC110,0.00,VWS V14.01,2013-03-17 11:43:00,
2013-03-17 06:44:00,32.3,26.5,30.07,NNE,28,0.0,11.0,79,0.00,,OVC110,0.00,VWS V14.01,2013-03-17 11:44:00,
2013-03-17 06:45:00,32.3,26.5,30.07,NNE,28,0.0,11.0,79,0.00,,OVC110,0.00,VWS V14.01,2013-03-17 11:45:00,
2013-03-17 06:48:00,32.3,26.5,30.07,North,355,0.0,11.0,79,0.00,,BKN080,0.00,VWS V14.01,2013-03-17 11:48:00,
2013-03-17 06:49:00,32.3,26.5,30.07,NE,51,3.0,11.0,79,0.00,,BKN080,0.00,VWS V14.01,2013-03-17 11:49:00,
2013-03-17 06:50:00,32.3,26.5,30.07,NE,34,8.0,11.0,79,0.00,,BKN080,0.00,VWS V14.01,2013-03-17 11:50:00,
2013-03-17 06:53:00,32.1,26.6,30.07,NNE,27,4.0,11.0,80,0.00,,BKN080,0.00,VWS V14.01,2013-03-17 11:53:00,
2013-03-17 06:54:00,32.1,26.6,30.07,North,5,2.0,11.0,80,0.00,,BKN080,0.00,VWS V14.01,2013-03-17 11:54:00,
2013-03-17 06:55:00,32.1,27.5,30.07,North,360,0.0,11.0,83,0.00,,BKN080,0.00,VWS V14.01,2013-03-17 11:55:00,
2013-03-17 06:58:00,32.1,26.6,30.07,NNW,341,0.0,11.0,80,0.00,,BKN080,0.00,VWS V14.01,2013-03-17 11:58:00,
2013-03-17 06:59:00,32.1,26.6,30.07,NNE,30,3.0,11.0,80,0.00,,BKN080,0.00,VWS V14.01,2013-03-17 11:59:00,
2013-03-17 07:00:00,32.1,26.6,30.07,North,5,1.0,11.0,80,0.00,,BKN080,0.00,VWS V14.01,2013-03-17 12:00:00,
2013-03-17 07:03:00,32.1,26.9,30.07,NNE,22,7.0,7.0,81,0.00,,BKN080,0.00,VWS V14.01,2013-03-17 12:03:00,
2013-03-17 07:04:00,32.1,26.9,30.07,NNE,18,0.0,9.0,81,0.00,,BKN080,0.00,VWS V14.01,2013-03-17 12:04:00,
2013-03-17 07:05:00,32.1,26.9,30.07,NE,42,4.0,9.0,81,0.00,,BKN080,0.00,VWS V14.01,2013-03-17 12:05:00,
2013-03-17 07:09:00,32.1,26.9,30.07,NE,48,1.0,9.0,81,0.00,,BKN080,0.00,VWS V14.01,2013-03-17 12:09:00,
2013-03-17 07:10:00,32.1,26.9,30.07,NNE,15,0.0,9.0,81,0.00,,BKN080,0.00,VWS V14.01,2013-03-17 12:10:00,
2013-03-17 07:14:00,32.1,26.9,30.07,NE,52,0.0,9.0,81,0.00,,BKN080,0.00,VWS V14.01,2013-03-17 12:14:00,
2013-03-17 07:15:00,32.1,26.9,30.08,NNE,20,1.0,9.0,81,0.00,,OVC100,0.00,VWS V14.01,2013-03-17 12:15:00,
2013-03-17 07:19:00,32.1,26.9,30.08,NE,40,3.0,10.0,81,0.00,,OVC100,0.00,VWS V14.01,2013-03-17 12:19:00,
2013-03-17 07:20:00,32.1,26.9,30.08,ENE,57,8.0,10.0,81,0.00,,OVC100,0.00,VWS V14.01,2013-03-17 12:20:00,
2013-03-17 07:24:00,32.1,27.2,30.08,ENE,61,0.0,10.0,82,0.00,,OVC100,0.00,VWS V14.01,2013-03-17 12:24:00,
2013-03-17 07:25:00,32.1,27.2,30.08,ENE,65,0.0,10.0,82,0.00,,OVC100,0.00,VWS V14.01,2013-03-17 12:25:00,
2013-03-17 07:29:00,32.1,27.2,30.07,NE,49,0.0,10.0,82,0.00,,OVC100,0.00,VWS V14.01,2013-03-17 12:29:00,
2013-03-17 07:30:00,32.1,27.2,30.07,NE,49,0.0,10.0,82,0.00,,OVC035,0.00,VWS V14.01,2013-03-17 12:30:00,
2013-03-17 07:31:00,32.1,27.2,30.07,NE,51,0.0,1.0,82,0.00,,BKN090,0.00,VWS V14.01,2013-03-17 12:31:00,
2013-03-17 07:34:00,32.3,27.4,30.07,NNE,26,0.0,2.0,82,0.00,,BKN090,0.00,VWS V14.01,2013-03-17 12:34:00,
2013-03-17 07:35:00,32.3,27.4,30.07,NNE,26,0.0,2.0,82,0.00,,BKN090,0.00,VWS V14.01,2013-03-17 12:35:00,
2013-03-17 07:36:00,32.3,27.4,30.07,NNE,26,0.0,2.0,82,0.00,,BKN090,0.00,VWS V14.01,2013-03-17 12:36:00,
2013-03-17 07:39:00,32.3,27.4,30.07,NNE,19,4.0,4.0,82,0.00,,BKN090,0.00,VWS V14.01,2013-03-17 12:39:00,
2013-03-17 07:40:00,32.3,27.4,30.07,NNE,12,4.0,7.0,82,0.00,,BKN090,0.00,VWS V14.01,2013-03-17 12:40:00,
2013-03-17 07:41:00,32.3,27.4,30.07,NNE,22,0.0,7.0,82,0.00,,BKN090,0.00,VWS V14.01,2013-03-17 12:41:00,
2013-03-17 07:44:00,32.3,27.4,30.08,ENE,57,1.0,7.0,82,0.00,,BKN090,0.00,VWS V14.01,2013-03-17 12:44:00,
2013-03-17 07:45:00,32.3,27.4,30.08,ENE,57,1.0,7.0,82,0.00,,BKN090,0.00,VWS V14.01,2013-03-17 12:45:00,
2013-03-17 07:46:00,32.3,27.4,30.08,ENE,57,0.0,7.0,82,0.00,,BKN090,0.00,VWS V14.01,2013-03-17 12:46:00,
2013-03-17 07:49:00,32.3,27.4,30.08,NE,47,0.0,7.0,82,0.00,,BKN090,0.00,VWS V14.01,2013-03-17 12:49:00,
2013-03-17 07:50:00,32.3,27.4,30.08,NE,47,0.0,7.0,82,0.00,,BKN090,0.00,VWS V14.01,2013-03-17 12:50:00,
2013-03-17 07:51:00,32.3,27.4,30.08,NE,47,0.0,7.0,82,0.00,,BKN090,0.00,VWS V14.01,2013-03-17 12:51:00,
2013-03-17 07:55:00,32.3,27.4,30.08,NE,43,0.0,9.0,82,0.00,,BKN090,0.00,VWS V14.01,2013-03-17 12:55:00,
2013-03-17 07:56:00,32.3,27.4,30.08,ENE,73,3.0,11.0,82,0.00,,BKN090,0.00,VWS V14.01,2013-03-17 12:56:00,
2013-03-17 07:57:00,32.3,27.4,30.08,NE,46,0.0,11.0,82,0.00,,BKN090,0.00,VWS V14.01,2013-03-17 12:57:00,
2013-03-17 08:00:00,32.4,27.5,30.07,NE,34,0.0,11.0,82,0.00,,BKN090,0.00,VWS V14.01,2013-03-17 13:00:00,
2013-03-17 08:01:00,32.4,27.5,30.07,NE,52,0.0,4.0,82,0.00,,BKN090,0.00,VWS V14.01,2013-03-17 13:01:00,
2013-03-17 08:02:00,32.4,27.2,30.07,NE,53,0.0,4.0,81,0.00,,OVC014,0.00,VWS V14.01,2013-03-17 13:02:00,
2013-03-17 08:05:00,32.4,27.2,30.07,ENE,58,0.0,8.0,81,0.00,,OVC014,0.00,VWS V14.01,2013-03-17 13:05:00,
2013-03-17 08:06:00,32.4,27.2,30.07,NE,53,3.0,8.0,81,0.00,,OVC014,0.00,VWS V14.01,2013-03-17 13:06:00,
2013-03-17 08:07:00,32.4,27.2,30.07,NE,54,0.0,8.0,81,0.00,,OVC014,0.00,VWS V14.01,2013-03-17 13:07:00,
2013-03-17 08:10:00,32.4,27.2,30.07,East,98,0.0,9.0,81,0.00,,OVC014,0.00,VWS V14.01,2013-03-17 13:10:00,
2013-03-17 08:11:00,32.4,27.2,30.07,East,98,0.0,9.0,81,0.00,,OVC014,0.00,VWS V14.01,2013-03-17 13:11:00,
2013-03-17 08:12:00,32.4,27.2,30.07,ENE,61,0.0,9.0,81,0.00,,OVC014,0.00,VWS V14.01,2013-03-17 13:12:00,
2013-03-17 08:15:00,32.6,27.1,30.07,East,100,5.0,9.0,80,0.00,,OVC014,0.00,VWS V14.01,2013-03-17 13:15:00,
2013-03-17 08:16:00,32.6,27.1,30.07,East,98,0.0,9.0,80,0.00,,OVC014,0.00,VWS V14.01,2013-03-17 13:16:00,
2013-03-17 08:17:00,32.6,27.1,30.07,East,88,0.0,9.0,80,0.00,,OVC014,0.00,VWS V14.01,2013-03-17 13:17:00,
2013-03-17 08:21:00,32.4,26.6,30.07,ENE,59,0.0,9.0,79,0.00,,OVC014,0.00,VWS V14.01,2013-03-17 13:21:00,
2013-03-17 08:22:00,32.4,26.3,30.07,East,82,3.0,9.0,78,0.00,,OVC014,0.00,VWS V14.01,2013-03-17 13:22:00,
2013-03-17 08:23:00,32.4,26.3,30.07,NE,53,3.0,9.0,78,0.00,,OVC014,0.00,VWS V14.01,2013-03-17 13:23:00,
2013-03-17 08:26:00,32.4,26.0,30.07,NE,44,0.0,9.0,77,0.00,,OVC014,0.00,VWS V14.01,2013-03-17 13:26:00,
2013-03-17 08:27:00,32.4,26.0,30.07,East,90,4.0,9.0,77,0.00,,OVC014,0.00,VWS V14.01,2013-03-17 13:27:00,
2013-03-17 08:28:00,32.4,25.7,30.07,NE,56,0.0,9.0,76,0.00,,OVC014,0.00,VWS V14.01,2013-03-17 13:28:00,
2013-03-17 08:30:00,32.4,25.4,30.07,ENE,62,3.0,9.0,75,0.00,,OVC035,0.00,VWS V14.01,2013-03-17 13:30:00,
2013-03-17 08:31:00,32.4,25.4,30.07,NE,54,3.0,5.0,75,0.00,,OVC014,0.00,VWS V14.01,2013-03-17 13:31:00,
2013-03-17 08:32:00,32.4,25.4,30.07,East,94,3.0,5.0,75,0.00,,OVC014,0.00,VWS V14.01,2013-03-17 13:32:00,
2013-03-17 08:33:00,32.4,25.0,30.07,ESE,113,6.0,9.0,74,0.00,,OVC014,0.00,VWS V14.01,2013-03-17 13:33:00,
2013-03-17 08:36:00,32.4,24.7,30.07,ENE,62,4.0,14.0,73,0.00,,OVC014,0.00,VWS V14.01,2013-03-17 13:36:00,
2013-03-17 08:37:00,32.4,24.7,30.07,East,81,0.0,14.0,73,0.00,,OVC014,0.00,VWS V14.01,2013-03-17 13:37:00,
2013-03-17 08:38:00,32.4,24.7,30.07,East,79,2.0,14.0,73,0.00,,OVC014,0.00,VWS V14.01,2013-03-17 13:38:00,
2013-03-17 08:41:00,32.4,24.7,30.07,ENE,57,9.0,14.0,73,0.00,,OVC014,0.00,VWS V14.01,2013-03-17 13:41:00,
2013-03-17 08:42:00,32.4,24.7,30.07,ESE,109,1.0,14.0,73,0.00,,OVC014,0.00,VWS V14.01,2013-03-17 13:42:00,
2013-03-17 08:43:00,32.4,24.7,30.07,ENE,77,0.0,14.0,73,0.00,,OVC014,0.00,VWS V14.01,2013-03-17 13:43:00,
2013-03-17 08:46:00,32.4,24.7,30.07,ENE,77,1.0,14.0,73,0.00,,OVC017,0.00,VWS V14.01,2013-03-17 13:46:00,
2013-03-17 08:47:00,32.4,24.7,30.07,ENE,77,0.0,14.0,73,0.00,,OVC017,0.00,VWS V14.01,2013-03-17 13:47:00,
2013-03-17 08:48:00,32.4,24.7,30.07,NNE,22,1.0,14.0,73,0.00,,OVC017,0.00,VWS V14.01,2013-03-17 13:48:00,
2013-03-17 08:52:00,32.4,24.7,30.07,ENE,63,0.0,14.0,73,0.00,,OVC017,0.00,VWS V14.01,2013-03-17 13:52:00,
2013-03-17 08:53:00,32.4,24.7,30.07,NE,36,0.0,14.0,73,0.00,,OVC017,0.00,VWS V14.01,2013-03-17 13:53:00,
2013-03-17 08:57:00,32.4,24.4,30.07,NE,43,0.0,14.0,72,0.00,,OVC017,0.00,VWS V14.01,2013-03-17 13:57:00,
2013-03-17 08:58:00,32.4,24.7,30.07,ENE,59,0.0,14.0,73,0.00,,OVC017,0.00,VWS V14.01,2013-03-17 13:58:00,
2013-03-17 09:00:00,32.4,24.4,30.08,NE,36,3.0,14.0,72,0.00,,OVC035,0.00,VWS V14.01,2013-03-17 14:00:00,
2013-03-17 09:02:00,32.4,24.4,30.08,ENE,65,6.0,10.0,72,0.00,,OVC015,0.00,VWS V14.01,2013-03-17 14:02:00,
2013-03-17 09:03:00,32.4,24.4,30.08,ENE,61,0.0,10.0,72,0.00,,OVC015,0.00,VWS V14.01,2013-03-17 14:03:00,
2013-03-17 09:04:00,32.4,24.4,30.08,NE,49,1.0,10.0,72,0.00,,OVC015,0.00,VWS V14.01,2013-03-17 14:04:00,
2013-03-17 09:07:00,32.4,24.4,30.08,NE,56,10.0,12.0,72,0.00,,OVC015,0.00,VWS V14.01,2013-03-17 14:07:00,
2013-03-17 09:08:00,32.4,24.4,30.08,NNE,29,9.0,12.0,72,0.00,,OVC015,0.00,VWS V14.01,2013-03-17 14:08:00,
2013-03-17 09:09:00,32.4,24.4,30.08,NNE,24,0.0,12.0,72,0.00,,OVC015,0.00,VWS V14.01,2013-03-17 14:09:00,
2013-03-17 09:12:00,32.4,24.4,30.08,ENE,64,1.0,12.0,72,0.00,,OVC015,0.00,VWS V14.01,2013-03-17 14:12:00,
2013-03-17 09:13:00,32.6,24.6,30.08,NE,51,0.0,12.0,72,0.00,,OVC015,0.00,VWS V14.01,2013-03-17 14:13:00,
2013-03-17 09:14:00,32.6,24.6,30.08,NNE,14,1.0,12.0,72,0.00,,OVC015,0.00,VWS V14.01,2013-03-17 14:14:00,
2013-03-17 09:17:00,32.6,24.6,30.08,NNE,28,0.0,12.0,72,0.00,,OVC015,0.00,VWS V14.01,2013-03-17 14:17:00,
2013-03-17 09:18:00,32.6,24.6,30.08,NNE,33,0.0,12.0,72,0.00,,OVC015,0.00,VWS V14.01,2013-03-17 14:18:00,
2013-03-17 09:19:00,32.6,24.6,30.08,NE,37,5.0,12.0,72,0.00,,OVC015,0.00,VWS V14.01,2013-03-17 14:19:00,
2013-03-17 09:22:00,32.6,24.6,30.08,ENE,59,2.0,12.0,72,0.00,,OVC015,0.00,VWS V14.01,2013-03-17 14:22:00,
2013-03-17 09:23:00,32.6,24.6,30.08,NE,44,0.0,12.0,72,0.00,,OVC015,0.00,VWS V14.01,2013-03-17 14:23:00,
2013-03-17 09:24:00,32.6,24.6,30.08,NE,50,2.0,12.0,72,0.00,,OVC015,0.00,VWS V14.01,2013-03-17 14:24:00,
2013-03-17 09:28:00,32.6,24.6,30.08,ENE,62,4.0,12.0,72,0.00,,OVC015,0.00,VWS V14.01,2013-03-17 14:28:00,
2013-03-17 09:29:00,32.6,24.6,30.08,NE,47,6.0,12.0,72,0.00,,OVC015,0.00,VWS V14.01,2013-03-17 14:29:00,
2013-03-17 09:30:00,32.6,24.6,30.07,East,80,4.0,12.0,72,0.00,,OVC035,0.00,VWS V14.01,2013-03-17 14:30:00,
2013-03-17 09:33:00,32.7,24.7,30.07,NE,50,4.0,11.0,72,0.00,,OVC015,0.00,VWS V14.01,2013-03-17 14:33:00,
2013-03-17 09:34:00,32.7,24.7,30.07,NE,45,1.0,11.0,72,0.00,,OVC015,0.00,VWS V14.01,2013-03-17 14:34:00,
2013-03-17 09:38:00,32.7,24.7,30.07,NE,42,1.0,11.0,72,0.00,,OVC015,0.00,VWS V14.01,2013-03-17 14:38:00,
2013-03-17 09:39:00,32.7,24.7,30.07,NE,42,0.0,11.0,72,0.00,,OVC015,0.00,VWS V14.01,2013-03-17 14:39:00,
2013-03-17 09:43:00,32.7,24.7,30.07,NE,50,0.0,11.0,72,0.00,,OVC015,0.00,VWS V14.01,2013-03-17 14:43:00,
2013-03-17 09:45:00,32.7,24.7,30.07,NNE,31,1.0,11.0,72,0.00,,OVC015,0.00,VWS V14.01,2013-03-17 14:45:00,
2013-03-17 09:48:00,32.8,24.8,30.07,East,80,2.0,14.0,72,0.00,,BKN055,0.00,VWS V14.01,2013-03-17 14:48:00,
2013-03-17 09:50:00,32.8,24.8,30.07,NNE,29,0.0,14.0,72,0.00,,BKN055,0.00,VWS V14.01,2013-03-17 14:50:00,
2013-03-17 09:53:00,32.8,24.8,30.07,NNE,16,0.0,14.0,72,0.00,,BKN055,0.00,VWS V14.01,2013-03-17 14:53:00,
2013-03-17 09:55:00,32.8,24.8,30.07,ENE,59,2.0,14.0,72,0.00,,BKN055,0.00,VWS V14.01,2013-03-17 14:55:00,
2013-03-17 09:58:00,32.8,24.8,30.07,ENE,69,0.0,14.0,72,0.00,,BKN055,0.00,VWS V14.01,2013-03-17 14:58:00,
2013-03-17 10:00:00,32.8,24.8,30.07,NE,41,0.0,14.0,72,0.00,,BKN055,0.00,VWS V14.01,2013-03-17 15:00:00,
2013-03-17 10:03:00,32.8,24.8,30.07,NE,54,0.0,10.0,72,0.00,,SCT017,0.00,VWS V14.01,2013-03-17 15:03:00,
2013-03-17 10:05:00,33.0,25.0,30.07,ENE,67,3.0,10.0,72,0.00,,SCT017,0.00,VWS V14.01,2013-03-17 15:05:00,
2013-03-17 10:30:00,33.3,25.3,30.07,NNE,27,0.0,13.0,72,0.00,,OVC035,0.00,VWS V14.01,2013-03-17 15:30:00,
2013-03-17 10:38:00,33.4,25.0,30.07,East,84,0.0,12.0,71,0.00,,SCT017,0.00,VWS V14.01,2013-03-17 15:38:00,
2013-03-17 10:39:00,33.4,25.0,30.07,NE,52,0.0,12.0,71,0.00,,SCT017,0.00,VWS V14.01,2013-03-17 15:39:00,
2013-03-17 10:43:00,33.6,25.2,30.07,ENE,63,1.0,12.0,71,0.00,,SCT017,0.00,VWS V14.01,2013-03-17 15:43:00,
2013-03-17 10:44:00,33.7,25.3,30.07,ENE,59,2.0,12.0,71,0.00,,SCT017,0.00,VWS V14.01,2013-03-17 15:44:00,
2013-03-17 10:48:00,33.7,25.3,30.05,ENE,63,6.0,12.0,71,0.00,,SCT060,0.00,VWS V14.01,2013-03-17 15:48:00,
2013-03-17 10:49:00,33.6,25.2,30.05,ENE,67,0.0,12.0,71,0.00,,SCT060,0.00,VWS V14.01,2013-03-17 15:49:00,
2013-03-17 10:53:00,33.7,25.3,30.05,ENE,59,3.0,12.0,71,0.00,,SCT060,0.00,VWS V14.01,2013-03-17 15:53:00,
2013-03-17 10:54:00,33.7,25.3,30.05,NNE,28,7.0,12.0,71,0.00,,SCT060,0.00,VWS V14.01,2013-03-17 15:54:00,
2013-03-17 10:55:00,33.7,25.3,30.05,ENE,61,3.0,12.0,71,0.00,,SCT060,0.00,VWS V14.01,2013-03-17 15:55:00,
2013-03-17 10:58:00,33.7,25.3,30.05,ENE,65,7.0,12.0,71,0.00,,SCT060,0.00,VWS V14.01,2013-03-17 15:58:00,
2013-03-17 10:59:00,33.7,25.3,30.06,NE,49,4.0,12.0,71,0.00,,SCT060,0.00,VWS V14.01,2013-03-17 15:59:00,
2013-03-17 11:00:00,33.7,25.3,30.06,NE,42,5.0,12.0,71,0.00,,SCT060,0.00,VWS V14.01,2013-03-17 16:00:00,
2013-03-17 11:04:00,33.7,25.0,30.06,ENE,68,0.0,11.0,70,0.00,,SCT085,0.00,VWS V14.01,2013-03-17 16:04:00,
2013-03-17 11:05:00,33.7,25.3,30.06,NNE,21,0.0,11.0,71,0.00,,SCT085,0.00,VWS V14.01,2013-03-17 16:05:00,
2013-03-17 11:09:00,33.9,25.2,30.06,ENE,69,0.0,12.0,70,0.00,,SCT085,0.00,VWS V14.01,2013-03-17 16:09:00,
2013-03-17 11:10:00,33.9,25.2,30.06,ENE,59,0.0,12.0,70,0.00,,SCT085,0.00,VWS V14.01,2013-03-17 16:10:00,
2013-03-17 11:14:00,34.2,25.5,30.06,East,94,7.0,12.0,70,0.00,,SCT085,0.00,VWS V14.01,2013-03-17 16:14:00,
2013-03-17 11:15:00,34.0,25.3,30.07,NE,55,0.0,12.0,70,0.00,,SCT085,0.00,VWS V14.01,2013-03-17 16:15:00,
2013-03-17 11:19:00,34.0,25.6,30.07,ENE,63,5.0,12.0,71,0.00,,SCT085,0.00,VWS V14.01,2013-03-17 16:19:00,
2013-03-17 11:20:00,34.0,25.3,30.07,NE,42,0.0,12.0,70,0.00,,SCT085,0.00,VWS V14.01,2013-03-17 16:20:00,
2013-03-17 11:24:00,34.0,25.3,30.07,ENE,65,0.0,12.0,70,0.00,,SCT085,0.00,VWS V14.01,2013-03-17 16:24:00,
2013-03-17 11:25:00,34.2,25.8,30.07,East,98,0.0,12.0,71,0.00,,SCT085,0.00,VWS V14.01,2013-03-17 16:25:00,
2013-03-17 11:29:00,34.3,25.5,30.07,East,96,0.0,12.0,70,0.00,,SCT085,0.00,VWS V14.01,2013-03-17 16:29:00,
2013-03-17 11:30:00,34.3,25.5,30.06,NE,36,0.0,12.0,70,0.00,,SCT085,0.00,VWS V14.01,2013-03-17 16:30:00,
2013-03-17 11:31:00,34.3,25.5,30.06,NE,43,5.0,5.0,70,0.00,,SCT085,0.00,VWS V14.01,2013-03-17 16:31:00,
2013-03-17 11:35:00,34.5,26.1,30.06,East,86,3.0,6.0,71,0.00,,SCT085,0.00,VWS V14.01,2013-03-17 16:35:00,
2013-03-17 11:36:00,34.5,26.1,30.06,SE,133,0.0,6.0,71,0.00,,SCT085,0.00,VWS V14.01,2013-03-17 16:36:00,
2013-03-17 11:40:00,34.5,25.7,30.06,NE,44,0.0,6.0,70,0.00,,SCT085,0.00,VWS V14.01,2013-03-17 16:40:00,
2013-03-17 11:42:00,34.5,26.1,30.06,East,86,0.0,6.0,71,0.00,,SCT085,0.00,VWS V14.01,2013-03-17 16:42:00,
2013-03-17 11:45:00,34.5,25.7,30.07,NE,55,0.0,7.0,70,0.00,,SCT085,0.00,VWS V14.01,2013-03-17 16:45:00,
2013-03-17 11:46:00,34.5,25.7,30.07,NE,55,0.0,7.0,70,0.00,,OVC023,0.00,VWS V14.01,2013-03-17 16:46:00,
2013-03-17 11:47:00,34.5,25.7,30.07,ENE,59,0.0,7.0,70,0.00,,OVC023,0.00,VWS V14.01,2013-03-17 16:47:00,
2013-03-17 11:50:00,34.5,25.7,30.07,NNE,18,7.0,10.0,70,0.00,,OVC023,0.00,VWS V14.01,2013-03-17 16:50:00,
2013-03-17 11:51:00,34.5,25.7,30.07,NNE,33,0.0,10.0,70,0.00,,OVC023,0.00,VWS V14.01,2013-03-17 16:51:00,
2013-03-17 11:52:00,34.5,25.7,30.07,NE,50,0.0,11.0,70,0.00,,OVC023,0.00,VWS V14.01,2013-03-17 16:52:00,
2013-03-17 11:55:00,34.5,26.1,30.07,NE,38,5.0,11.0,71,0.00,,OVC023,0.00,VWS V14.01,2013-03-17 16:55:00,
2013-03-17 11:56:00,34.5,26.1,30.07,ENE,71,10.0,11.0,71,0.00,,OVC023,0.00,VWS V14.01,2013-03-17 16:56:00,
2013-03-17 11:57:00,34.5,25.7,30.07,NE,46,9.0,11.0,70,0.00,,OVC023,0.00,VWS V14.01,2013-03-17 16:57:00,
2013-03-17 12:00:00,34.3,25.9,30.05,NE,55,3.0,11.0,71,0.00,,OVC023,0.00,VWS V14.01,2013-03-17 17:00:00,
2013-03-17 12:01:00,34.3,25.9,30.05,ENE,59,0.0,11.0,71,0.00,,OVC023,0.00,VWS V14.01,2013-03-17 17:01:00,
2013-03-17 12:02:00,34.5,26.1,30.05,NE,55,0.0,11.0,71,0.00,,OVC021,0.00,VWS V14.01,2013-03-17 17:02:00,
2013-03-17 12:05:00,34.6,26.2,30.05,East,94,2.0,11.0,71,0.00,,OVC021,0.00,VWS V14.01,2013-03-17 17:05:00,
2013-03-17 12:06:00,34.6,26.2,30.05,ENE,68,4.0,11.0,71,0.00,,OVC021,0.00,VWS V14.01,2013-03-17 17:06:00,
2013-03-17 12:07:00,34.6,26.2,30.05,NE,53,0.0,11.0,71,0.00,,OVC021,0.00,VWS V14.01,2013-03-17 17:07:00,
2013-03-17 12:10:00,34.8,26.0,30.05,ESE,113,0.0,11.0,70,0.00,,OVC021,0.00,VWS V14.01,2013-03-17 17:10:00,
2013-03-17 12:11:00,34.8,26.0,30.05,ESE,102,7.0,11.0,70,0.00,,OVC021,0.00,VWS V14.01,2013-03-17 17:11:00,
2013-03-17 12:12:00,34.8,26.4,30.05,East,91,6.0,11.0,71,0.00,,OVC021,0.00,VWS V14.01,2013-03-17 17:12:00,
2013-03-17 12:16:00,34.9,26.5,30.04,ENE,61,0.0,11.0,71,0.00,,OVC021,0.00,VWS V14.01,2013-03-17 17:16:00,
2013-03-17 12:17:00,35.1,26.7,30.04,ESE,107,7.0,11.0,71,0.00,,OVC021,0.00,VWS V14.01,2013-03-17 17:17:00,
2013-03-17 12:18:00,35.1,26.3,30.04,ENE,75,2.0,11.0,70,0.00,,OVC021,0.00,VWS V14.01,2013-03-17 17:18:00,
2013-03-17 12:21:00,35.2,26.4,30.04,ENE,72,3.0,12.0,70,0.00,,OVC021,0.00,VWS V14.01,2013-03-17 17:21:00,
2013-03-17 12:22:00,35.2,26.4,30.04,NE,47,6.0,12.0,70,0.00,,OVC021,0.00,VWS V14.01,2013-03-17 17:22:00,
2013-03-17 12:23:00,35.2,26.4,30.04,ENE,76,5.0,12.0,70,0.00,,OVC021,0.00,VWS V14.01,2013-03-17 17:23:00,
2013-03-17 12:27:00,35.1,26.7,30.04,NNE,30,5.0,15.0,71,0.00,,OVC021,0.00,VWS V14.01,2013-03-17 17:27:00,
2013-03-17 12:28:00,35.1,26.7,30.04,NE,46,4.0,15.0,71,0.00,,OVC021,0.00,VWS V14.01,2013-03-17 17:28:00,
2013-03-17 12:30:00,35.2,26.8,30.04,NE,41,10.0,15.0,71,0.00,,OVC035,0.00,VWS V14.01,2013-03-17 17:30:00,
2013-03-17 12:32:00,35.2,26.8,30.04,NE,41,13.0,13.0,71,0.00,,OVC021,0.00,VWS V14.01,2013-03-17 17:32:00,
2013-03-17 12:33:00,35.2,26.4,30.04,NE,46,14.0,17.0,70,0.00,,OVC021,0.00,VWS V14.01,2013-03-17 17:33:00,
2013-03-17 12:37:00,35.2,26.8,30.04,ENE,60,0.0,17.0,71,0.00,,OVC021,0.00,VWS V14.01,2013-03-17 17:37:00,
2013-03-17 12:38:00,35.4,27.0,30.04,NE,37,7.0,17.0,71,0.00,,OVC021,0.00,VWS V14.01,2013-03-17 17:38:00,
2013-03-17 12:42:00,35.1,26.7,30.04,ENE,75,0.0,17.0,71,0.00,,OVC021,0.00,VWS V14.01,2013-03-17 17:42:00,
2013-03-17 12:43:00,35.1,26.7,30.04,ENE,63,0.0,17.0,71,0.00,,OVC021,0.00,VWS V14.01,2013-03-17 17:43:00,
2013-03-17 12:47:00,35.4,27.0,30.03,East,88,2.0,17.0,71,0.00,,OVC021,0.00,VWS V14.01,2013-03-17 17:47:00,
2013-03-17 12:48:00,35.4,27.0,30.03,NE,56,0.0,17.0,71,0.00,,OVC021,0.00,VWS V14.01,2013-03-17 17:48:00,
2013-03-17 12:52:00,35.7,26.9,30.03,ENE,77,0.0,17.0,70,0.00,,OVC021,0.00,VWS V14.01,2013-03-17 17:52:00,
2013-03-17 12:53:00,35.7,26.9,30.03,ENE,61,6.0,17.0,70,0.00,,OVC021,0.00,VWS V14.01,2013-03-17 17:53:00,
2013-03-17 12:54:00,35.5,26.7,30.03,East,80,7.0,17.0,70,0.00,,OVC021,0.00,VWS V14.01,2013-03-17 17:54:00,
2013-03-17 12:57:00,35.7,27.2,30.03,NE,42,2.0,17.0,71,0.00,,OVC021,0.00,VWS V14.01,2013-03-17 17:57:00,
2013-03-17 12:58:00,35.7,27.2,30.03,East,95,1.0,17.0,71,0.00,,OVC021,0.00,VWS V14.01,2013-03-17 17:58:00,
2013-03-17 12:59:00,35.5,26.7,30.02,ENE,77,0.0,17.0,70,0.00,,OVC021,0.00,VWS V14.01,2013-03-17 17:59:00,
2013-03-17 13:00:00,35.5,27.0,30.02,East,101,7.0,17.0,71,0.00,,OVC035,0.00,VWS V14.01,2013-03-17 18:00:00,
2013-03-17 13:02:00,35.5,27.0,30.02,ENE,59,1.0,9.0,71,0.00,,OVC021,0.00,VWS V14.01,2013-03-17 18:02:00,
2013-03-17 13:03:00,35.7,27.2,30.02,NE,54,3.0,9.0,71,0.00,,OVC021,0.00,VWS V14.01,2013-03-17 18:03:00,
2013-03-17 13:04:00,35.7,27.2,30.02,NE,36,5.0,9.0,71,0.00,,OVC021,0.00,VWS V14.01,2013-03-17 18:04:00,
2013-03-17 13:07:00,35.7,26.9,30.02,NNE,16,5.0,11.0,70,0.00,,OVC021,0.00,VWS V14.01,2013-03-17 18:07:00,
2013-03-17 13:08:00,35.5,26.7,30.02,ENE,57,9.0,11.0,70,0.00,,OVC021,0.00,VWS V14.01,2013-03-17 18:08:00,
2013-03-17 13:09:00,35.5,26.7,30.02,NE,51,9.0,12.0,70,0.00,,OVC021,0.00,VWS V14.01,2013-03-17 18:09:00,
2013-03-17 13:13:00,35.4,27.0,30.02,NE,49,0.0,12.0,71,0.00,,OVC021,0.00,VWS V14.01,2013-03-17 18:13:00,
2013-03-17 13:14:00,35.5,27.0,30.02,ENE,57,3.0,12.0,71,0.00,,OVC021,0.00,VWS V14.01,2013-03-17 18:14:00,
2013-03-17 13:18:00,35.4,27.0,30.02,East,97,3.0,13.0,71,0.00,,OVC021,0.00,VWS V14.01,2013-03-17 18:18:00,
2013-03-17 13:19:00,35.5,27.0,30.02,ESE,104,0.0,13.0,71,0.00,,OVC021,0.00,VWS V14.01,2013-03-17 18:19:00,
2013-03-17 13:23:00,35.5,27.0,30.02,NE,47,2.0,13.0,71,0.00,,OVC021,0.00,VWS V14.01,2013-03-17 18:23:00,
2013-03-17 13:24:00,35.5,27.0,30.02,NE,53,5.0,13.0,71,0.00,,OVC021,0.00,VWS V14.01,2013-03-17 18:24:00,
2013-03-17 13:28:00,35.4,27.3,30.02,NE,40,2.0,13.0,72,0.00,,OVC021,0.00,VWS V14.01,2013-03-17 18:28:00,
2013-03-17 13:29:00,35.4,27.3,30.01,NE,53,2.0,13.0,72,0.00,,OVC021,0.00,VWS V14.01,2013-03-17 18:29:00,
2013-03-17 13:30:00,35.4,27.0,30.01,NE,41,0.0,13.0,71,0.00,,OVC035,0.00,VWS V14.01,2013-03-17 18:30:00,
2013-03-17 13:33:00,35.4,27.3,30.01,East,80,3.0,6.0,72,0.00,,OVC021,0.00,VWS V14.01,2013-03-17 18:33:00,
2013-03-17 13:34:00,35.4,27.3,30.01,East,96,3.0,6.0,72,0.00,,OVC021,0.00,VWS V14.01,2013-03-17 18:34:00,
2013-03-17 13:38:00,35.4,27.3,30.01,NE,38,1.0,7.0,72,0.00,,OVC021,0.00,VWS V14.01,2013-03-17 18:38:00,
2013-03-17 13:39:00,35.5,27.4,30.01,NE,51,1.0,7.0,72,0.00,,OVC021,0.00,VWS V14.01,2013-03-17 18:39:00,
2013-03-17 13:40:00,35.5,27.4,30.01,ESE,109,0.0,7.0,72,0.00,,OVC021,0.00,VWS V14.01,2013-03-17 18:40:00,
2013-03-17 13:43:00,35.7,27.6,30.01,NE,36,0.0,7.0,72,0.00,,OVC021,0.00,VWS V14.01,2013-03-17 18:43:00,
2013-03-17 13:44:00,35.8,27.7,30.00,NE,36,0.0,7.0,72,0.00,,OVC021,0.00,VWS V14.01,2013-03-17 18:44:00,
2013-03-17 13:45:00,35.8,27.7,30.00,NE,45,4.0,7.0,72,0.00,,OVC021,0.00,VWS V14.01,2013-03-17 18:45:00,
2013-03-17 13:48:00,35.8,27.3,30.00,East,86,5.0,7.0,71,0.00,,OVC021,0.00,VWS V14.01,2013-03-17 18:48:00,
2013-03-17 13:49:00,35.8,27.3,30.00,East,98,11.0,11.0,71,0.00,,OVC021,0.00,VWS V14.01,2013-03-17 18:49:00,
2013-03-17 13:50:00,35.8,27.3,30.00,East,82,1.0,11.0,71,0.00,,OVC021,0.00,VWS V14.01,2013-03-17 18:50:00,
2013-03-17 13:54:00,35.8,27.3,30.00,ENE,77,0.0,11.0,71,0.00,,OVC021,0.00,VWS V14.01,2013-03-17 18:54:00,
2013-03-17 13:55:00,35.8,27.7,30.00,East,86,1.0,11.0,72,0.00,,OVC021,0.00,VWS V14.01,2013-03-17 18:55:00,
2013-03-17 13:59:00,35.9,27.8,30.00,NNE,33,2.0,11.0,72,0.00,,OVC021,0.00,VWS V14.01,2013-03-17 18:59:00,
2013-03-17 14:00:00,35.9,28.1,29.99,East,88,3.0,11.0,73,0.00,,OVC021,0.00,VWS V14.01,2013-03-17 19:00:00,
2013-03-17 14:04:00,35.8,28.0,29.99,ESE,103,6.0,11.0,73,0.00,,OVC021,0.00,VWS V14.01,2013-03-17 19:04:00,
2013-03-17 14:05:00,35.8,28.0,29.99,East,82,0.0,11.0,73,0.00,,OVC021,0.00,VWS V14.01,2013-03-17 19:05:00,
2013-03-17 14:09:00,35.8,28.7,29.99,East,101,3.0,12.0,75,0.00,,OVC021,0.00,VWS V14.01,2013-03-17 19:09:00,
2013-03-17 14:10:00,35.8,28.7,29.99,ESE,103,11.0,12.0,75,0.00,,OVC021,0.00,VWS V14.01,2013-03-17 19:10:00,
2013-03-17 14:14:00,35.5,28.4,29.97,East,86,6.0,12.0,75,0.00,,OVC021,0.00,VWS V14.01,2013-03-17 19:14:00,
2013-03-17 14:15:00,35.5,28.4,29.97,ESE,107,5.0,12.0,75,0.00,,OVC021,0.00,VWS V14.01,2013-03-17 19:15:00,
2013-03-17 14:16:00,35.4,28.6,29.97,ESE,122,5.0,12.0,76,0.00,,OVC021,0.00,VWS V14.01,2013-03-17 19:16:00,
2013-03-17 14:19:00,35.5,28.7,29.97,East,87,5.0,12.0,76,0.00,,OVC021,0.00,VWS V14.01,2013-03-17 19:19:00,
2013-03-17 14:20:00,35.7,28.9,29.97,East,81,4.0,12.0,76,0.00,,OVC021,0.00,VWS V14.01,2013-03-17 19:20:00,
2013-03-17 14:22:00,35.7,28.9,29.97,East,93,0.0,12.0,76,0.00,,OVC021,0.00,VWS V14.01,2013-03-17 19:22:00,
2013-03-17 14:24:00,35.9,29.4,29.97,ENE,64,0.0,13.0,77,0.00,,OVC021,0.00,VWS V14.01,2013-03-17 19:24:00,
2013-03-17 14:25:00,35.9,29.4,29.97,East,88,5.0,13.0,77,0.00,,OVC021,0.00,VWS V14.01,2013-03-17 19:25:00,
2013-03-17 14:27:00,35.9,29.1,29.97,East,80,5.0,13.0,76,0.00,,OVC021,0.00,VWS V14.01,2013-03-17 19:27:00,
2013-03-17 14:30:00,36.1,29.3,29.96,East,90,0.0,13.0,76,0.00,,OVC021,0.00,VWS V14.01,2013-03-17 19:30:00,
2013-03-17 14:31:00,36.1,29.6,29.96,NE,49,0.0,5.0,77,0.00,,OVC021,0.00,VWS V14.01,2013-03-17 19:31:00,
2013-03-17 14:32:00,36.2,29.7,29.96,NE,50,0.0,7.0,77,0.00,,OVC021,0.00,VWS V14.01,2013-03-17 19:32:00,
2013-03-17 14:35:00,36.4,29.9,29.96,East,88,0.0,7.0,77,0.00,,OVC021,0.00,VWS V14.01,2013-03-17 19:35:00,
2013-03-17 14:36:00,36.4,29.6,29.96,East,88,0.0,7.0,76,0.00,,OVC021,0.00,VWS V14.01,2013-03-17 19:36:00,
2013-03-17 14:37:00,36.4,29.6,29.96,NE,56,2.0,7.0,76,0.00,,OVC021,0.00,VWS V14.01,2013-03-17 19:37:00,
2013-03-17 14:40:00,36.4,29.6,29.96,NE,51,4.0,7.0,76,0.00,,OVC021,0.00,VWS V14.01,2013-03-17 19:40:00,
2013-03-17 14:41:00,36.2,29.4,29.96,NE,42,6.0,9.0,76,0.00,,OVC021,0.00,VWS V14.01,2013-03-17 19:41:00,
2013-03-17 14:43:00,36.2,29.4,29.96,ENE,78,3.0,9.0,76,0.00,,OVC021,0.00,VWS V14.01,2013-03-17 19:43:00,
2013-03-17 14:45:00,36.2,29.4,29.96,East,80,5.0,9.0,76,0.00,,,0.00,VWS V14.01,2013-03-17 19:45:00,
2013-03-17 14:46:00,36.2,29.4,29.96,ENE,78,3.0,9.0,76,0.00,,,0.00,VWS V14.01,2013-03-17 19:46:00,
2013-03-17 14:48:00,36.2,29.4,29.96,NE,44,4.0,10.0,76,0.00,,,0.00,VWS V14.01,2013-03-17 19:48:00,
2013-03-17 14:50:00,36.4,29.6,29.96,ENE,66,1.0,11.0,76,0.00,,,0.00,VWS V14.01,2013-03-17 19:50:00,
2013-03-17 14:51:00,36.4,29.6,29.96,ENE,61,0.0,11.0,76,0.00,,,0.00,VWS V14.01,2013-03-17 19:51:00,
2013-03-17 14:53:00,36.4,29.2,29.96,East,96,0.0,11.0,75,0.00,,,0.00,VWS V14.01,2013-03-17 19:53:00,
2013-03-17 14:56:00,36.5,29.7,29.96,East,82,3.0,11.0,76,0.00,,,0.00,VWS V14.01,2013-03-17 19:56:00,
2013-03-17 14:58:00,36.5,29.3,29.96,ESE,104,1.0,11.0,75,0.00,,,0.00,VWS V14.01,2013-03-17 19:58:00,
2013-03-17 15:00:00,36.4,29.2,29.96,East,98,1.0,11.0,75,0.00,,OVC035,0.00,VWS V14.01,2013-03-17 20:00:00,
2013-03-17 15:01:00,36.4,29.2,29.96,NE,54,1.0,5.0,75,0.00,,OVC050,0.00,VWS V14.01,2013-03-17 20:01:00,
2013-03-17 15:03:00,36.4,29.2,29.96,NE,56,0.0,6.0,75,0.00,,OVC050,0.00,VWS V14.01,2013-03-17 20:03:00,
2013-03-17 15:06:00,36.5,29.7,29.96,ENE,63,0.0,6.0,76,0.00,,OVC050,0.00,VWS V14.01,2013-03-17 20:06:00,
2013-03-17 15:07:00,36.5,29.7,29.96,ENE,63,0.0,6.0,76,0.00,,OVC050,0.00,VWS V14.01,2013-03-17 20:07:00,
2013-03-17 15:08:00,36.5,29.7,29.96,NE,36,0.0,6.0,76,0.00,,OVC050,0.00,VWS V14.01,2013-03-17 20:08:00,
2013-03-17 15:12:00,36.7,29.9,29.96,East,94,0.0,6.0,76,0.00,,OVC050,0.00,VWS V14.01,2013-03-17 20:12:00,
2013-03-17 15:13:00,36.7,29.9,29.96,East,101,5.0,6.0,76,0.00,,OVC050,0.00,VWS V14.01,2013-03-17 20:13:00,
2013-03-17 15:17:00,36.5,29.7,29.96,ENE,75,2.0,7.0,76,0.00,,OVC050,0.00,VWS V14.01,2013-03-17 20:17:00,
2013-03-17 15:19:00,36.5,29.7,29.96,East,96,0.0,7.0,76,0.00,,OVC050,0.00,VWS V14.01,2013-03-17 20:19:00,
2013-03-17 15:22:00,36.2,29.7,29.96,East,81,0.0,10.0,77,0.00,,OVC050,0.00,VWS V14.01,2013-03-17 20:22:00,
2013-03-17 15:24:00,36.2,29.7,29.96,NNE,22,0.0,10.0,77,0.00,,OVC050,0.00,VWS V14.01,2013-03-17 20:24:00,
2013-03-17 15:27:00,36.4,30.2,29.96,NE,41,0.0,10.0,78,0.00,,OVC050,0.00,VWS V14.01,2013-03-17 20:27:00,
2013-03-17 15:29:00,36.4,30.5,29.96,ENE,61,0.0,10.0,79,0.00,,OVC050,0.00,VWS V14.01,2013-03-17 20:29:00,
2013-03-17 15:30:00,36.4,30.5,29.95,East,92,3.0,10.0,79,0.00,,OVC035,0.00,VWS V14.01,2013-03-17 20:30:00,
2013-03-17 15:32:00,36.2,30.3,29.95,ENE,61,0.0,6.0,79,0.00,,OVC050,0.00,VWS V14.01,2013-03-17 20:32:00,
2013-03-17 15:33:00,36.2,30.3,29.95,ENE,61,0.0,6.0,79,0.00,,OVC050,0.00,VWS V14.01,2013-03-17 20:33:00,
2013-03-17 15:34:00,36.2,30.3,29.95,East,92,0.0,6.0,79,0.00,,OVC050,0.00,VWS V14.01,2013-03-17 20:34:00,
2013-03-17 15:37:00,36.1,30.5,29.95,NE,47,0.0,6.0,80,0.00,,OVC050,0.00,VWS V14.01,2013-03-17 20:37:00,
2013-03-17 15:38:00,36.1,30.5,29.95,NE,47,0.0,6.0,80,0.00,,OVC050,0.00,VWS V14.01,2013-03-17 20:38:00,
2013-03-17 15:39:00,36.1,30.5,29.95,ENE,69,0.0,6.0,80,0.00,,OVC050,0.00,VWS V14.01,2013-03-17 20:39:00,
2013-03-17 15:42:00,35.9,30.6,29.95,NE,34,0.0,6.0,81,0.00,,OVC050,0.00,VWS V14.01,2013-03-17 20:42:00,
2013-03-17 15:43:00,35.9,30.6,29.95,NE,34,0.0,6.0,81,0.00,,OVC050,0.00,VWS V14.01,2013-03-17 20:43:00,
2013-03-17 15:44:00,35.9,30.6,29.95,NE,36,0.0,6.0,81,0.00,,OVC050,0.00,VWS V14.01,2013-03-17 20:44:00,
2013-03-17 15:48:00,35.8,30.5,29.96,NE,45,0.0,6.0,81,0.00,,,0.00,VWS V14.01,2013-03-17 20:48:00,
2013-03-17 15:49:00,35.8,30.9,29.96,NE,47,0.0,6.0,82,0.00,,,0.00,VWS V14.01,2013-03-17 20:49:00,
2013-03-17 15:53:00,35.7,30.8,29.96,NE,46,0.0,6.0,82,0.00,,,0.00,VWS V14.01,2013-03-17 20:53:00,
2013-03-17 15:55:00,35.7,30.8,29.96,NE,54,0.0,6.0,82,0.00,,,0.00,VWS V14.01,2013-03-17 20:55:00,
2013-03-17 15:58:00,35.5,30.6,29.96,ENE,72,0.0,6.0,82,0.00,,,0.00,VWS V14.01,2013-03-17 20:58:00,
2013-03-17 15:59:00,35.5,30.6,29.96,NE,50,0.0,6.0,82,0.00,,,0.00,VWS V14.01,2013-03-17 20:59:00,
2013-03-17 16:00:00,35.5,30.6,29.95,NE,49,0.0,0.0,82,0.00,,,0.00,VWS V14.01,2013-03-17 21:00:00,
2013-03-17 16:03:00,35.5,30.6,29.95,ENE,75,0.0,1.0,82,0.00,,,0.00,VWS V14.01,2013-03-17 21:03:00,
2013-03-17 16:04:00,35.5,30.6,29.95,ENE,75,0.0,1.0,82,0.00,,,0.00,VWS V14.01,2013-03-17 21:04:00,
2013-03-17 16:05:00,35.5,30.6,29.95,NE,50,0.0,4.0,82,0.00,,,0.00,VWS V14.01,2013-03-17 21:05:00,
2013-03-17 16:08:00,35.4,30.5,29.95,ENE,74,0.0,4.0,82,0.00,,,0.00,VWS V14.01,2013-03-17 21:08:00,
2013-03-17 16:09:00,35.4,30.5,29.95,ENE,74,0.0,4.0,82,0.00,,,0.00,VWS V14.01,2013-03-17 21:09:00,
2013-03-17 16:10:00,35.4,30.5,29.95,ENE,74,0.0,4.0,82,0.00,,,0.00,VWS V14.01,2013-03-17 21:10:00,
2013-03-17 16:13:00,35.4,30.5,29.95,ENE,74,0.0,4.0,82,0.00,,,0.00,VWS V14.01,2013-03-17 21:13:00,
2013-03-17 16:14:00,35.4,30.5,29.95,ENE,74,0.0,4.0,82,0.00,,,0.00,VWS V14.01,2013-03-17 21:14:00,
2013-03-17 16:15:00,35.4,30.8,29.96,East,91,0.0,4.0,83,0.00,,,0.00,VWS V14.01,2013-03-17 21:15:00,
2013-03-17 16:18:00,35.2,30.6,29.96,East,84,0.0,4.0,83,0.00,,,0.00,VWS V14.01,2013-03-17 21:18:00,
2013-03-17 16:19:00,35.2,30.6,29.96,East,84,0.0,4.0,83,0.00,,,0.00,VWS V14.01,2013-03-17 21:19:00,
2013-03-17 16:20:00,35.2,30.6,29.96,East,84,0.0,4.0,83,0.00,,,0.00,VWS V14.01,2013-03-17 21:20:00,
2013-03-17 16:23:00,35.1,30.5,29.96,East,80,0.0,4.0,83,0.00,,,0.00,VWS V14.01,2013-03-17 21:23:00,
2013-03-17 16:24:00,35.1,30.5,29.96,NNE,24,2.0,5.0,83,0.00,,,0.00,VWS V14.01,2013-03-17 21:24:00,
2013-03-17 16:25:00,34.9,30.3,29.96,NNE,24,0.0,5.0,83,0.00,,,0.00,VWS V14.01,2013-03-17 21:25:00,
2013-03-17 16:28:00,34.8,30.5,29.96,NNE,24,0.0,5.0,84,0.00,,,0.00,VWS V14.01,2013-03-17 21:28:00,
2013-03-17 16:29:00,34.8,30.5,29.96,NNE,24,0.0,5.0,84,0.00,,,0.00,VWS V14.01,2013-03-17 21:29:00,
2013-03-17 16:30:00,34.8,30.5,29.95,NNE,24,0.0,0.0,84,0.00,,,0.00,VWS V14.01,2013-03-17 21:30:00,
2013-03-17 16:31:00,34.8,30.5,29.95,NE,34,0.0,1.0,84,0.00,,,0.00,VWS V14.01,2013-03-17 21:31:00,
2013-03-17 16:33:00,34.5,30.2,29.95,ENE,77,0.0,4.0,84,0.01,,,0.01,VWS V14.01,2013-03-17 21:33:00,
2013-03-17 16:34:00,34.5,30.2,29.95,ENE,77,0.0,4.0,84,0.01,,,0.01,VWS V14.01,2013-03-17 21:34:00,
2013-03-17 16:35:00,34.5,30.2,29.95,ENE,77,0.0,4.0,84,0.01,,,0.01,VWS V14.01,2013-03-17 21:35:00,
2013-03-17 16:36:00,34.5,30.2,29.95,ENE,77,0.0,4.0,84,0.01,,,0.01,VWS V14.01,2013-03-17 21:36:00,
2013-03-17 16:39:00,34.3,30.3,29.95,East,88,0.0,4.0,85,0.01,,,0.01,VWS V14.01,2013-03-17 21:39:00,
2013-03-17 16:40:00,34.2,30.2,29.95,East,89,0.0,4.0,85,0.01,,,0.01,VWS V14.01,2013-03-17 21:40:00,
2013-03-17 16:41:00,34.0,30.0,29.95,East,89,0.0,4.0,85,0.01,,,0.01,VWS V14.01,2013-03-17 21:41:00,
2013-03-17 16:44:00,34.0,30.0,29.95,East,88,0.0,4.0,85,0.01,,,0.01,VWS V14.01,2013-03-17 21:44:00,
2013-03-17 16:45:00,34.0,30.3,29.93,East,88,0.0,4.0,86,0.01,,RA,0.01,VWS V14.01,2013-03-17 21:45:00,
2013-03-17 16:47:00,33.9,30.2,29.93,NNE,30,4.0,4.0,86,0.01,,RA,0.01,VWS V14.01,2013-03-17 21:47:00,
2013-03-17 16:49:00,33.9,30.2,29.93,NE,46,0.0,5.0,86,0.01,,RA,0.01,VWS V14.01,2013-03-17 21:49:00,
2013-03-17 16:51:00,33.7,30.0,29.93,ENE,70,0.0,5.0,86,0.01,,RA,0.01,VWS V14.01,2013-03-17 21:51:00,
2013-03-17 16:52:00,33.7,30.2,29.93,NE,49,0.0,5.0,87,0.01,,RA,0.01,VWS V14.01,2013-03-17 21:52:00,
2013-03-17 16:54:00,33.7,30.2,29.93,NE,50,0.0,5.0,87,0.01,,RA,0.01,VWS V14.01,2013-03-17 21:54:00,
2013-03-17 16:56:00,33.7,30.2,29.93,NE,50,0.0,5.0,87,0.01,,RA,0.01,VWS V14.01,2013-03-17 21:56:00,
2013-03-17 16:58:00,33.7,30.2,29.93,ENE,67,3.0,5.0,87,0.01,,RA,0.01,VWS V14.01,2013-03-17 21:58:00,
2013-03-17 16:59:00,33.7,30.2,29.91,East,96,0.0,5.0,87,0.01,,RA,0.01,VWS V14.01,2013-03-17 21:59:00,
2013-03-17 17:00:00,33.7,30.5,29.91,East,88,0.0,5.0,88,0.01,,OVC035,0.01,VWS V14.01,2013-03-17 22:00:00,
2013-03-17 17:02:00,33.7,30.5,29.91,NE,46,0.0,3.0,88,0.02,,,0.02,VWS V14.01,2013-03-17 22:02:00,
2013-03-17 17:03:00,33.7,30.5,29.91,NE,46,0.0,3.0,88,0.02,,,0.02,VWS V14.01,2013-03-17 22:03:00,
2013-03-17 17:04:00,33.7,30.5,29.91,NE,49,0.0,3.0,88,0.02,,,0.02,VWS V14.01,2013-03-17 22:04:00,
2013-03-17 17:07:00,33.7,30.5,29.91,East,79,0.0,5.0,88,0.02,,,0.02,VWS V14.01,2013-03-17 22:07:00,
2013-03-17 17:08:00,33.7,30.5,29.91,East,79,0.0,5.0,88,0.02,,,0.02,VWS V14.01,2013-03-17 22:08:00,
2013-03-17 17:09:00,33.7,30.5,29.91,ENE,57,1.0,5.0,88,0.02,,,0.02,VWS V14.01,2013-03-17 22:09:00,
2013-03-17 17:13:00,33.7,30.5,29.91,NE,55,0.0,5.0,88,0.02,,,0.02,VWS V14.01,2013-03-17 22:13:00,
2013-03-17 17:14:00,33.7,30.5,29.92,NE,56,0.0,5.0,88,0.02,,,0.02,VWS V14.01,2013-03-17 22:14:00,
2013-03-17 17:18:00,33.9,31.0,29.92,NE,40,0.0,5.0,89,0.02,,,0.02,VWS V14.01,2013-03-17 22:18:00,
2013-03-17 17:19:00,33.9,31.0,29.92,NE,40,0.0,5.0,89,0.02,,,0.02,VWS V14.01,2013-03-17 22:19:00,
2013-03-17 17:20:00,33.9,31.0,29.92,NE,40,0.0,5.0,89,0.02,,,0.02,VWS V14.01,2013-03-17 22:20:00,
2013-03-17 17:23:00,33.9,31.0,29.92,NE,56,0.0,14.0,89,0.03,,,0.03,VWS V14.01,2013-03-17 22:23:00,
2013-03-17 17:24:00,33.9,31.0,29.92,NE,55,0.0,14.0,89,0.03,,,0.03,VWS V14.01,2013-03-17 22:24:00,
2013-03-17 17:25:00,33.9,31.0,29.92,NE,49,4.0,14.0,89,0.03,,,0.03,VWS V14.01,2013-03-17 22:25:00,
2013-03-17 17:28:00,33.9,31.0,29.92,NE,49,0.0,14.0,89,0.03,,,0.03,VWS V14.01,2013-03-17 22:28:00,
2013-03-17 17:29:00,34.0,31.1,29.92,NE,49,3.0,14.0,89,0.03,,,0.03,VWS V14.01,2013-03-17 22:29:00,
2013-03-17 17:30:00,34.0,31.1,29.92,NNE,30,3.0,14.0,89,0.03,,,0.03,VWS V14.01,2013-03-17 22:30:00,
2013-03-17 17:33:00,34.0,31.1,29.92,ENE,57,3.0,11.0,89,0.03,,BKN055,0.03,VWS V14.01,2013-03-17 22:33:00,
2013-03-17 17:34:00,34.0,31.1,29.92,ENE,63,2.0,11.0,89,0.03,,BKN055,0.03,VWS V14.01,2013-03-17 22:34:00,
2013-03-17 17:35:00,34.0,31.1,29.92,NE,53,0.0,11.0,89,0.03,,BKN055,0.03,VWS V14.01,2013-03-17 22:35:00,
2013-03-17 17:38:00,34.0,31.1,29.92,NE,55,0.0,11.0,89,0.03,,BKN055,0.03,VWS V14.01,2013-03-17 22:38:00,
2013-03-17 17:39:00,34.2,31.3,29.92,NE,55,0.0,11.0,89,0.03,,BKN055,0.03,VWS V14.01,2013-03-17 22:39:00,
2013-03-17 17:40:00,34.2,31.3,29.92,East,97,5.0,11.0,89,0.03,,BKN055,0.03,VWS V14.01,2013-03-17 22:40:00,
2013-03-17 17:43:00,34.2,31.3,29.92,NE,41,0.0,11.0,89,0.03,,BKN055,0.03,VWS V14.01,2013-03-17 22:43:00,
2013-03-17 17:44:00,34.3,31.4,29.91,NE,35,2.0,13.0,89,0.03,,BKN055,0.03,VWS V14.01,2013-03-17 22:44:00,
2013-03-17 17:45:00,34.3,31.4,29.91,NE,40,2.0,13.0,89,0.03,,BKN055,0.03,VWS V14.01,2013-03-17 22:45:00,
2013-03-17 17:48:00,34.3,31.4,29.91,NE,44,0.0,13.0,89,0.03,,BKN055,0.03,VWS V14.01,2013-03-17 22:48:00,
2013-03-17 17:49:00,34.3,31.4,29.91,NE,51,3.0,13.0,89,0.03,,BKN055,0.03,VWS V14.01,2013-03-17 22:49:00,
2013-03-17 17:50:00,34.3,31.4,29.91,ENE,72,0.0,13.0,89,0.03,,BKN055,0.03,VWS V14.01,2013-03-17 22:50:00,
2013-03-17 17:53:00,34.3,31.4,29.91,NE,52,1.0,13.0,89,0.03,,BKN055,0.03,VWS V14.01,2013-03-17 22:53:00,
2013-03-17 17:54:00,34.3,31.4,29.91,East,84,1.0,13.0,89,0.04,,BKN055,0.04,VWS V14.01,2013-03-17 22:54:00,
2013-03-17 17:55:00,34.3,31.4,29.91,NNE,20,0.0,13.0,89,0.04,,BKN055,0.04,VWS V14.01,2013-03-17 22:55:00,
2013-03-17 17:58:00,34.3,31.4,29.91,East,84,0.0,13.0,89,0.04,,BKN055,0.04,VWS V14.01,2013-03-17 22:58:00,
2013-03-17 17:59:00,34.3,31.4,29.90,NE,46,4.0,13.0,89,0.04,,BKN055,0.04,VWS V14.01,2013-03-17 22:59:00,
2013-03-17 18:00:00,34.3,31.4,29.90,NE,51,0.0,13.0,89,0.04,,BKN055,0.04,VWS V14.01,2013-03-17 23:00:00,
2013-03-17 18:02:00,34.3,31.4,29.90,ESE,115,7.0,7.0,89,0.03,,-RA,0.04,VWS V14.01,2013-03-17 23:02:00,
2013-03-17 18:04:00,34.5,31.6,29.90,ENE,59,7.0,7.0,89,0.03,,-RA,0.04,VWS V14.01,2013-03-17 23:04:00,
2013-03-17 18:05:00,34.5,31.6,29.90,NNE,32,6.0,8.0,89,0.03,,-RA,0.04,VWS V14.01,2013-03-17 23:05:00,
2013-03-17 18:07:00,34.5,31.6,29.90,NNE,17,2.0,8.0,89,0.03,,-RA,0.04,VWS V14.01,2013-03-17 23:07:00,
2013-03-17 18:09:00,34.5,31.6,29.90,North,5,5.0,8.0,89,0.03,,-RA,0.04,VWS V14.01,2013-03-17 23:09:00,
2013-03-17 18:10:00,34.5,31.6,29.90,ENE,73,0.0,8.0,89,0.03,,-RA,0.04,VWS V14.01,2013-03-17 23:10:00,
2013-03-17 18:11:00,34.6,31.7,29.90,NE,50,4.0,8.0,89,0.03,,-RA,0.04,VWS V14.01,2013-03-17 23:11:00,
2013-03-17 18:12:00,34.6,31.7,29.90,ENE,67,1.0,8.0,89,0.03,,-RA,0.04,VWS V14.01,2013-03-17 23:12:00,
2013-03-17 18:14:00,34.6,31.7,29.90,ENE,57,0.0,8.0,89,0.03,,-RA,0.04,VWS V14.01,2013-03-17 23:14:00,
2013-03-17 18:15:00,34.6,31.7,29.90,ENE,57,0.0,8.0,89,0.03,,-RA,0.04,VWS V14.01,2013-03-17 23:15:00,
2013-03-17 18:16:00,34.6,31.7,29.90,NE,41,3.0,8.0,89,0.03,,-RA,0.04,VWS V14.01,2013-03-17 23:16:00,
2013-03-17 18:17:00,34.6,31.7,29.90,ENE,62,0.0,8.0,89,0.03,,-RA,0.04,VWS V14.01,2013-03-17 23:17:00,
2013-03-17 18:19:00,34.6,31.7,29.90,ENE,57,0.0,8.0,89,0.03,,-RA,0.04,VWS V14.01,2013-03-17 23:19:00,
2013-03-17 18:20:00,34.6,31.7,29.90,ENE,76,1.0,8.0,89,0.03,,-RA,0.04,VWS V14.01,2013-03-17 23:20:00,
2013-03-17 18:21:00,34.8,31.9,29.90,ENE,58,0.0,8.0,89,0.03,,-RA,0.04,VWS V14.01,2013-03-17 23:21:00,
2013-03-17 18:22:00,34.6,31.7,29.90,NE,56,0.0,8.0,89,0.03,,-RA,0.04,VWS V14.01,2013-03-17 23:22:00,
2013-03-17 18:24:00,34.6,31.7,29.90,East,90,0.0,11.0,89,0.03,,-RA,0.04,VWS V14.01,2013-03-17 23:24:00,
2013-03-17 18:25:00,34.6,31.7,29.90,NE,42,0.0,11.0,89,0.03,,-RA,0.04,VWS V14.01,2013-03-17 23:25:00,
2013-03-17 18:27:00,34.8,31.6,29.90,NE,48,0.0,11.0,88,0.03,,-RA,0.04,VWS V14.01,2013-03-17 23:27:00,
2013-03-17 18:28:00,34.8,31.9,29.90,NE,48,0.0,11.0,89,0.03,,-RA,0.04,VWS V14.01,2013-03-17 23:28:00,
2013-03-17 18:29:00,34.8,31.9,29.90,NNE,32,2.0,11.0,89,0.03,,-RA,0.04,VWS V14.01,2013-03-17 23:29:00,
2013-03-17 18:30:00,34.8,31.6,29.91,ENE,69,0.0,0.0,88,0.01,,-RA,0.04,VWS V14.01,2013-03-17 23:30:00,
2013-03-17 18:32:00,34.8,31.6,29.91,ENE,66,0.0,0.0,88,0.01,,-RA,0.04,VWS V14.01,2013-03-17 23:32:00,
2013-03-17 18:33:00,34.8,31.6,29.91,ENE,66,0.0,0.0,88,0.01,,-RA,0.04,VWS V14.01,2013-03-17 23:33:00,
2013-03-17 18:34:00,34.8,31.6,29.91,ENE,66,0.0,0.0,88,0.01,,-RA,0.04,VWS V14.01,2013-03-17 23:34:00,
2013-03-17 18:36:00,34.9,31.7,29.91,ESE,104,0.0,3.0,88,0.01,,-RA,0.04,VWS V14.01,2013-03-17 23:36:00,
2013-03-17 18:37:00,34.9,31.7,29.91,ENE,59,0.0,4.0,88,0.01,,-RA,0.04,VWS V14.01,2013-03-17 23:37:00,
2013-03-17 18:38:00,34.9,31.7,29.91,NE,50,0.0,4.0,88,0.01,,-RA,0.04,VWS V14.01,2013-03-17 23:38:00,
2013-03-17 18:39:00,34.9,31.7,29.91,ENE,60,0.0,4.0,88,0.01,,-RA,0.04,VWS V14.01,2013-03-17 23:39:00,
2013-03-17 18:41:00,34.9,31.7,29.91,East,91,0.0,5.0,88,0.02,,-RA,0.05,VWS V14.01,2013-03-17 23:41:00,
2013-03-17 18:42:00,34.9,31.7,29.91,East,90,7.0,7.0,88,0.02,,-RA,0.05,VWS V14.01,2013-03-17 23:42:00,
2013-03-17 18:43:00,34.9,31.7,29.91,East,90,4.0,7.0,88,0.02,,-RA,0.05,VWS V14.01,2013-03-17 23:43:00,
2013-03-17 18:44:00,34.9,31.7,29.91,ESE,110,0.0,7.0,88,0.02,,-RA,0.05,VWS V14.01,2013-03-17 23:44:00,
2013-03-17 18:46:00,34.9,31.7,29.91,East,89,4.0,7.0,88,0.02,,-RA,0.05,VWS V14.01,2013-03-17 23:46:00,
2013-03-17 18:47:00,34.9,31.7,29.91,East,80,0.0,7.0,88,0.02,,-RA,0.05,VWS V14.01,2013-03-17 23:47:00,
2013-03-17 18:48:00,34.9,31.7,29.91,East,80,0.0,7.0,88,0.02,,-RA,0.05,VWS V14.01,2013-03-17 23:48:00,
2013-03-17 18:50:00,34.9,31.7,29.91,ENE,71,3.0,7.0,88,0.02,,-RA,0.05,VWS V14.01,2013-03-17 23:50:00,
2013-03-17 18:51:00,34.8,31.6,29.91,ESE,106,0.0,7.0,88,0.02,,-RA,0.05,VWS V14.01,2013-03-17 23:51:00,
2013-03-17 18:52:00,34.8,31.6,29.91,East,84,0.0,7.0,88,0.02,,-RA,0.05,VWS V14.01,2013-03-17 23:52:00,
2013-03-17 18:53:00,34.8,31.6,29.91,East,84,0.0,7.0,88,0.02,,-RA,0.05,VWS V14.01,2013-03-17 23:53:00,
2013-03-17 18:55:00,34.8,31.6,29.91,East,89,0.0,7.0,88,0.02,,-RA,0.05,VWS V14.01,2013-03-17 23:55:00,
2013-03-17 18:56:00,34.8,31.6,29.91,ENE,69,0.0,7.0,88,0.02,,-RA,0.05,VWS V14.01,2013-03-17 23:56:00,
2013-03-17 18:58:00,34.8,31.6,29.91,East,83,0.0,7.0,88,0.02,,-RA,0.05,VWS V14.01,2013-03-17 23:58:00,
2013-03-17 19:00:00,34.8,31.6,29.90,East,82,0.0,7.0,88,0.02,,-RA,0.05,VWS V14.01,2013-03-18 00:00:00,
2013-03-17 19:02:00,34.8,31.6,29.90,ENE,69,0.0,0.0,88,0.01,,OVC047,0.05,VWS V14.01,2013-03-18 00:02:00,
2013-03-17 19:03:00,34.8,31.6,29.90,NNE,28,0.0,4.0,88,0.01,,OVC047,0.05,VWS V14.01,2013-03-18 00:03:00,
2013-03-17 19:05:00,34.6,31.4,29.90,ENE,65,0.0,6.0,88,0.02,,OVC047,0.06,VWS V14.01,2013-03-18 00:05:00,
2013-03-17 19:07:00,34.6,31.4,29.90,NE,43,0.0,6.0,88,0.02,,OVC047,0.06,VWS V14.01,2013-03-18 00:07:00,
2013-03-17 19:08:00,34.6,31.4,29.90,ENE,59,5.0,6.0,88,0.02,,OVC047,0.06,VWS V14.01,2013-03-18 00:08:00,
2013-03-17 19:09:00,34.6,31.4,29.90,ENE,57,0.0,6.0,88,0.02,,OVC047,0.06,VWS V14.01,2013-03-18 00:09:00,
2013-03-17 19:10:00,34.5,31.3,29.90,ENE,69,0.0,6.0,88,0.02,,OVC047,0.06,VWS V14.01,2013-03-18 00:10:00,
2013-03-17 19:12:00,34.5,31.3,29.90,ESE,104,0.0,6.0,88,0.02,,OVC047,0.06,VWS V14.01,2013-03-18 00:12:00,
2013-03-17 19:13:00,34.5,31.3,29.90,NE,42,0.0,6.0,88,0.02,,OVC047,0.06,VWS V14.01,2013-03-18 00:13:00,
2013-03-17 19:14:00,34.5,31.3,29.90,NE,42,0.0,6.0,88,0.02,,OVC047,0.06,VWS V14.01,2013-03-18 00:14:00,
2013-03-17 19:15:00,34.5,31.3,29.89,East,88,0.0,6.0,88,0.02,,,0.06,VWS V14.01,2013-03-18 00:15:00,
2013-03-17 19:17:00,34.5,31.3,29.89,NE,36,0.0,6.0,88,0.03,,,0.07,VWS V14.01,2013-03-18 00:17:00,
2013-03-17 19:18:00,34.5,31.3,29.89,ENE,59,2.0,6.0,88,0.03,,,0.07,VWS V14.01,2013-03-18 00:18:00,
2013-03-17 19:19:00,34.3,31.1,29.89,East,86,0.0,6.0,88,0.03,,,0.07,VWS V14.01,2013-03-18 00:19:00,
2013-03-17 19:20:00,34.3,31.1,29.89,NE,56,0.0,6.0,88,0.03,,,0.07,VWS V14.01,2013-03-18 00:20:00,
2013-03-17 19:22:00,34.3,31.1,29.89,East,82,0.0,6.0,88,0.04,,,0.08,VWS V14.01,2013-03-18 00:22:00,
2013-03-17 19:23:00,34.3,31.1,29.89,East,80,0.0,6.0,88,0.04,,,0.08,VWS V14.01,2013-03-18 00:23:00,
2013-03-17 19:24:00,34.3,31.1,29.89,East,79,0.0,6.0,88,0.04,,,0.08,VWS V14.01,2013-03-18 00:24:00,
2013-03-17 19:26:00,34.3,31.1,29.89,ENE,78,0.0,6.0,88,0.04,,,0.08,VWS V14.01,2013-03-18 00:26:00,
2013-03-17 19:27:00,34.3,31.1,29.89,East,96,4.0,7.0,88,0.04,,,0.08,VWS V14.01,2013-03-18 00:27:00,
2013-03-17 19:29:00,34.3,31.1,29.89,NE,45,6.0,7.0,88,0.04,,,0.08,VWS V14.01,2013-03-18 00:29:00,
2013-03-17 19:30:00,34.3,31.1,29.90,NE,53,0.0,7.0,88,0.04,,OVC035,0.08,VWS V14.01,2013-03-18 00:30:00,
2013-03-17 19:31:00,34.3,31.1,29.90,NE,53,0.0,0.0,88,0.05,,,0.09,VWS V14.01,2013-03-18 00:31:00,
2013-03-17 19:32:00,34.3,31.1,29.90,ENE,76,0.0,1.0,88,0.05,,,0.09,VWS V14.01,2013-03-18 00:32:00,
2013-03-17 19:34:00,34.3,31.1,29.90,NE,42,0.0,1.0,88,0.05,,,0.09,VWS V14.01,2013-03-18 00:34:00,
2013-03-17 19:35:00,34.3,31.1,29.90,ENE,65,1.0,2.0,88,0.06,,,0.10,VWS V14.01,2013-03-18 00:35:00,
2013-03-17 19:36:00,34.2,31.0,29.90,NE,50,3.0,6.0,88,0.06,,,0.10,VWS V14.01,2013-03-18 00:36:00,
2013-03-17 19:38:00,34.2,31.0,29.90,NE,42,0.0,9.0,88,0.06,,,0.10,VWS V14.01,2013-03-18 00:38:00,
2013-03-17 19:39:00,34.2,31.3,29.90,NE,42,0.0,9.0,89,0.06,,,0.10,VWS V14.01,2013-03-18 00:39:00,
2013-03-17 19:40:00,34.2,31.3,29.90,NE,42,0.0,9.0,89,0.06,,,0.10,VWS V14.01,2013-03-18 00:40:00,
2013-03-17 19:41:00,34.2,31.3,29.90,NE,44,0.0,9.0,89,0.07,,,0.11,VWS V14.01,2013-03-18 00:41:00,
2013-03-17 19:43:00,34.2,31.3,29.90,NE,44,0.0,9.0,89,0.07,,,0.11,VWS V14.01,2013-03-18 00:43:00,
2013-03-17 19:44:00,34.2,31.3,29.90,NE,44,0.0,9.0,89,0.07,,,0.11,VWS V14.01,2013-03-18 00:44:00,
2013-03-17 19:45:00,34.0,31.1,29.88,NE,39,0.0,9.0,89,0.07,,,0.11,VWS V14.01,2013-03-18 00:45:00,
2013-03-17 19:46:00,34.0,31.1,29.88,NE,54,0.0,9.0,89,0.08,,RA,0.12,VWS V14.01,2013-03-18 00:46:00,
2013-03-17 19:48:00,34.0,31.1,29.88,NE,53,0.0,9.0,89,0.08,,RA,0.12,VWS V14.01,2013-03-18 00:48:00,
2013-03-17 19:49:00,34.0,31.1,29.88,ENE,61,0.0,9.0,89,0.08,,RA,0.12,VWS V14.01,2013-03-18 00:49:00,
2013-03-17 19:50:00,34.0,31.1,29.88,ENE,65,0.0,9.0,89,0.08,,RA,0.12,VWS V14.01,2013-03-18 00:50:00,
2013-03-17 19:52:00,34.0,31.1,29.88,NNE,33,0.0,9.0,89,0.08,,RA,0.12,VWS V14.01,2013-03-18 00:52:00,
2013-03-17 19:53:00,34.0,31.1,29.88,East,84,3.0,9.0,89,0.08,,RA,0.12,VWS V14.01,2013-03-18 00:53:00,
2013-03-17 19:54:00,34.0,31.1,29.88,East,95,0.0,9.0,89,0.08,,RA,0.12,VWS V14.01,2013-03-18 00:54:00,
2013-03-17 19:55:00,34.0,31.1,29.88,ENE,78,4.0,9.0,89,0.08,,RA,0.12,VWS V14.01,2013-03-18 00:55:00,
2013-03-17 19:57:00,34.0,31.1,29.88,East,100,1.0,9.0,89,0.08,,RA,0.12,VWS V14.01,2013-03-18 00:57:00,
2013-03-17 19:58:00,34.0,31.1,29.88,ENE,57,0.0,9.0,89,0.08,,RA,0.12,VWS V14.01,2013-03-18 00:58:00,
2013-03-17 19:59:00,34.0,31.1,29.86,East,82,3.0,9.0,89,0.09,,RA,0.13,VWS V14.01,2013-03-18 00:59:00,
2013-03-17 20:00:00,34.0,31.1,29.86,ENE,71,0.0,2.0,89,0.08,,RA,0.13,VWS V14.01,2013-03-18 01:00:00,
2013-03-17 20:02:00,34.0,31.1,29.86,NE,46,4.0,7.0,89,0.08,,RA,0.13,VWS V14.01,2013-03-18 01:02:00,
2013-03-17 20:03:00,34.0,31.1,29.86,East,86,1.0,7.0,89,0.08,,RA,0.13,VWS V14.01,2013-03-18 01:03:00,
2013-03-17 20:04:00,34.0,31.1,29.86,East,86,0.0,7.0,89,0.08,,RA,0.13,VWS V14.01,2013-03-18 01:04:00,
2013-03-17 20:05:00,34.0,31.1,29.86,NE,44,1.0,7.0,89,0.09,,RA,0.14,VWS V14.01,2013-03-18 01:05:00,
2013-03-17 20:07:00,34.0,31.1,29.86,NE,42,0.0,7.0,89,0.09,,RA,0.14,VWS V14.01,2013-03-18 01:07:00,
2013-03-17 20:08:00,34.0,31.1,29.86,NNE,32,2.0,7.0,89,0.09,,RA,0.14,VWS V14.01,2013-03-18 01:08:00,
2013-03-17 20:09:00,34.0,31.1,29.86,ENE,57,0.0,7.0,89,0.09,,RA,0.14,VWS V14.01,2013-03-18 01:09:00,
2013-03-17 20:11:00,34.0,31.1,29.86,East,84,5.0,9.0,89,0.09,,RA,0.14,VWS V14.01,2013-03-18 01:11:00,
2013-03-17 20:12:00,34.2,31.3,29.86,ENE,59,0.0,9.0,89,0.09,,RA,0.14,VWS V14.01,2013-03-18 01:12:00,
2013-03-17 20:13:00,34.2,31.3,29.86,East,87,0.0,9.0,89,0.09,,RA,0.14,VWS V14.01,2013-03-18 01:13:00,
2013-03-17 20:14:00,34.2,31.3,29.87,ENE,58,0.0,9.0,89,0.09,,RA,0.14,VWS V14.01,2013-03-18 01:14:00,
2013-03-17 20:16:00,34.2,31.3,29.87,East,82,0.0,9.0,89,0.09,,RA,0.14,VWS V14.01,2013-03-18 01:16:00,
2013-03-17 20:17:00,34.2,31.3,29.87,ENE,76,0.0,9.0,89,0.09,,RA,0.14,VWS V14.01,2013-03-18 01:17:00,
2013-03-17 20:19:00,34.2,31.3,29.87,NE,42,0.0,9.0,89,0.10,,RA,0.15,VWS V14.01,2013-03-18 01:19:00,
2013-03-17 20:20:00,34.2,31.3,29.87,NE,42,0.0,9.0,89,0.10,,RA,0.15,VWS V14.01,2013-03-18 01:20:00,
2013-03-17 20:21:00,34.2,31.6,29.87,East,87,3.0,9.0,90,0.10,,RA,0.15,VWS V14.01,2013-03-18 01:21:00,
2013-03-17 20:23:00,34.2,31.6,29.87,ENE,67,0.0,9.0,90,0.10,,RA,0.15,VWS V14.01,2013-03-18 01:23:00,
2013-03-17 20:24:00,34.2,31.6,29.87,East,92,2.0,9.0,90,0.10,,RA,0.15,VWS V14.01,2013-03-18 01:24:00,
2013-03-17 20:25:00,34.2,31.6,29.87,NE,40,2.0,9.0,90,0.10,,RA,0.15,VWS V14.01,2013-03-18 01:25:00,
2013-03-17 20:26:00,34.2,31.6,29.87,NE,50,0.0,11.0,90,0.10,,RA,0.15,VWS V14.01,2013-03-18 01:26:00,
2013-03-17 20:28:00,34.3,31.7,29.87,ESE,112,0.0,11.0,90,0.11,,RA,0.16,VWS V14.01,2013-03-18 01:28:00,
2013-03-17 20:29:00,34.3,31.7,29.86,East,101,0.0,11.0,90,0.11,,RA,0.16,VWS V14.01,2013-03-18 01:29:00,
2013-03-17 20:30:00,34.3,31.7,29.86,East,101,0.0,11.0,90,0.11,,RA,0.16,VWS V14.01,2013-03-18 01:30:00,
2013-03-17 20:32:00,34.3,31.7,29.86,East,96,6.0,6.0,90,0.08,,RA,0.16,VWS V14.01,2013-03-18 01:32:00,
2013-03-17 20:33:00,34.3,31.7,29.86,East,93,2.0,11.0,90,0.08,,RA,0.16,VWS V14.01,2013-03-18 01:33:00,
2013-03-17 20:34:00,34.3,31.7,29.86,East,99,0.0,11.0,90,0.08,,RA,0.16,VWS V14.01,2013-03-18 01:34:00,
2013-03-17 20:35:00,34.3,31.7,29.86,NNE,20,3.0,11.0,90,0.08,,RA,0.16,VWS V14.01,2013-03-18 01:35:00,
2013-03-17 20:37:00,34.3,31.7,29.86,NNE,33,0.0,11.0,90,0.08,,RA,0.16,VWS V14.01,2013-03-18 01:37:00,
2013-03-17 20:38:00,34.3,31.7,29.86,NE,45,0.0,11.0,90,0.08,,RA,0.16,VWS V14.01,2013-03-18 01:38:00,
2013-03-17 20:39:00,34.3,31.7,29.86,East,86,3.0,11.0,90,0.09,,RA,0.17,VWS V14.01,2013-03-18 01:39:00,
2013-03-17 20:40:00,34.3,31.7,29.86,ENE,64,2.0,11.0,90,0.09,,RA,0.17,VWS V14.01,2013-03-18 01:40:00,
2013-03-17 20:42:00,34.3,31.7,29.86,ENE,59,0.0,11.0,90,0.10,,RA,0.18,VWS V14.01,2013-03-18 01:42:00,
2013-03-17 20:43:00,34.3,31.7,29.86,NE,46,0.0,11.0,90,0.10,,RA,0.18,VWS V14.01,2013-03-18 01:43:00,
2013-03-17 20:45:00,34.3,31.7,29.86,NE,46,0.0,11.0,90,0.10,,RA,0.18,VWS V14.01,2013-03-18 01:45:00,
2013-03-17 20:47:00,34.3,31.7,29.86,ENE,73,3.0,11.0,90,0.11,,-RA,0.19,VWS V14.01,2013-03-18 01:47:00,
2013-03-17 20:48:00,34.3,31.7,29.86,ENE,76,0.0,11.0,90,0.12,,-RA,0.20,VWS V14.01,2013-03-18 01:48:00,
2013-03-17 20:50:00,34.3,31.7,29.86,NE,51,0.0,11.0,90,0.12,,-RA,0.20,VWS V14.01,2013-03-18 01:50:00,
2013-03-17 20:52:00,34.3,31.7,29.86,NE,50,0.0,11.0,90,0.12,,-RA,0.20,VWS V14.01,2013-03-18 01:52:00,
2013-03-17 20:54:00,34.3,31.7,29.86,NE,54,0.0,11.0,90,0.13,,-RA,0.21,VWS V14.01,2013-03-18 01:54:00,
2013-03-17 20:55:00,34.3,31.7,29.86,East,95,3.0,11.0,90,0.13,,-RA,0.21,VWS V14.01,2013-03-18 01:55:00,
2013-03-17 20:57:00,34.3,31.7,29.86,East,92,0.0,11.0,90,0.14,,-RA,0.22,VWS V14.01,2013-03-18 01:57:00,
2013-03-17 20:59:00,34.3,31.7,29.86,ENE,64,0.0,11.0,90,0.14,,-RA,0.22,VWS V14.01,2013-03-18 01:59:00,
2013-03-17 21:00:00,34.3,31.7,29.86,NE,51,0.0,0.0,90,0.09,,-RA,0.22,VWS V14.01,2013-03-18 02:00:00,
2013-03-17 21:03:00,34.3,31.7,29.86,ENE,61,0.0,5.0,90,0.10,,-RA,0.23,VWS V14.01,2013-03-18 02:03:00,
2013-03-17 21:04:00,34.3,31.7,29.86,NE,51,0.0,5.0,90,0.11,,-RA,0.24,VWS V14.01,2013-03-18 02:04:00,
2013-03-17 21:05:00,34.3,31.7,29.86,East,95,3.0,6.0,90,0.11,,-RA,0.24,VWS V14.01,2013-03-18 02:05:00,
2013-03-17 21:08:00,34.3,31.7,29.86,ENE,60,0.0,6.0,90,0.11,,-RA,0.24,VWS V14.01,2013-03-18 02:08:00,
2013-03-17 21:09:00,34.3,31.7,29.86,ENE,74,4.0,6.0,90,0.12,,-RA,0.25,VWS V14.01,2013-03-18 02:09:00,
2013-03-17 21:10:00,34.3,31.7,29.86,East,92,5.0,10.0,90,0.12,,-RA,0.25,VWS V14.01,2013-03-18 02:10:00,
2013-03-17 21:13:00,34.3,31.7,29.86,ENE,60,1.0,10.0,90,0.13,,-RA,0.26,VWS V14.01,2013-03-18 02:13:00,
2013-03-17 21:14:00,34.3,31.7,29.84,East,88,4.0,10.0,90,0.13,,-RA,0.26,VWS V14.01,2013-03-18 02:14:00,
2013-03-17 21:15:00,34.3,31.7,29.84,ENE,73,0.0,10.0,90,0.14,,-RA,0.27,VWS V14.01,2013-03-18 02:15:00,
2013-03-17 21:16:00,34.3,31.7,29.84,ENE,73,0.0,10.0,90,0.14,,-RA,0.27,VWS V14.01,2013-03-18 02:16:00,
2013-03-17 21:18:00,34.3,31.7,29.84,ENE,75,0.0,10.0,90,0.14,,-RA,0.27,VWS V14.01,2013-03-18 02:18:00,
2013-03-17 21:19:00,34.3,31.7,29.84,ENE,77,0.0,10.0,90,0.15,,-RA,0.28,VWS V14.01,2013-03-18 02:19:00,
2013-03-17 21:20:00,34.3,31.7,29.84,ENE,76,3.0,10.0,90,0.15,,-RA,0.28,VWS V14.01,2013-03-18 02:20:00,
2013-03-17 21:21:00,34.3,31.7,29.84,East,96,4.0,11.0,90,0.15,,-RA,0.28,VWS V14.01,2013-03-18 02:21:00,
2013-03-17 21:23:00,34.3,31.7,29.84,NE,49,1.0,11.0,90,0.15,,-RA,0.28,VWS V14.01,2013-03-18 02:23:00,
2013-03-17 21:24:00,34.3,31.7,29.84,East,93,0.0,11.0,90,0.15,,-RA,0.28,VWS V14.01,2013-03-18 02:24:00,
2013-03-17 21:25:00,34.3,31.7,29.84,East,81,5.0,12.0,90,0.16,,-RA,0.29,VWS V14.01,2013-03-18 02:25:00,
2013-03-17 21:26:00,34.3,31.7,29.84,East,96,6.0,13.0,90,0.16,,-RA,0.29,VWS V14.01,2013-03-18 02:26:00,
2013-03-17 21:29:00,34.3,31.7,29.84,ESE,103,6.0,13.0,90,0.17,,-RA,0.30,VWS V14.01,2013-03-18 02:29:00,
2013-03-17 21:30:00,34.3,31.7,29.83,ESE,106,3.0,13.0,90,0.17,,-RA,0.30,VWS V14.01,2013-03-18 02:30:00,
2013-03-17 21:31:00,34.3,31.7,29.83,ENE,66,7.0,8.0,90,0.14,,-RA,0.30,VWS V14.01,2013-03-18 02:31:00,
2013-03-17 21:32:00,34.5,31.9,29.83,ESE,113,4.0,8.0,90,0.14,,-RA,0.30,VWS V14.01,2013-03-18 02:32:00,
2013-03-17 21:34:00,34.5,31.9,29.83,ENE,66,5.0,8.0,90,0.15,,-RA,0.31,VWS V14.01,2013-03-18 02:34:00,
2013-03-17 21:35:00,34.5,31.9,29.83,East,89,0.0,10.0,90,0.15,,-RA,0.31,VWS V14.01,2013-03-18 02:35:00,
2013-03-17 21:36:00,34.5,31.9,29.83,East,99,4.0,10.0,90,0.15,,-RA,0.31,VWS V14.01,2013-03-18 02:36:00,
2013-03-17 21:37:00,34.5,31.9,29.83,East,92,4.0,12.0,90,0.16,,-RA,0.32,VWS V14.01,2013-03-18 02:37:00,
2013-03-17 21:39:00,34.5,31.9,29.83,ESE,104,5.0,12.0,90,0.16,,-RA,0.32,VWS V14.01,2013-03-18 02:39:00,
2013-03-17 21:40:00,34.5,31.9,29.83,East,96,1.0,12.0,90,0.16,,-RA,0.32,VWS V14.01,2013-03-18 02:40:00,
2013-03-17 21:41:00,34.5,31.9,29.83,East,80,3.0,12.0,90,0.16,,-RA,0.32,VWS V14.01,2013-03-18 02:41:00,
2013-03-17 21:42:00,34.5,31.9,29.83,ESE,107,5.0,12.0,90,0.17,,-RA,0.33,VWS V14.01,2013-03-18 02:42:00,
2013-03-17 21:44:00,34.5,31.9,29.82,SSE,147,14.0,17.0,90,0.17,,-RA,0.33,VWS V14.01,2013-03-18 02:44:00,
2013-03-17 21:45:00,34.5,31.9,29.82,NE,53,2.0,17.0,90,0.17,,-RA,0.33,VWS V14.01,2013-03-18 02:45:00,
2013-03-17 21:46:00,34.5,31.9,29.82,ENE,65,2.0,17.0,90,0.17,,-RA,0.33,VWS V14.01,2013-03-18 02:46:00,
2013-03-17 21:47:00,34.5,31.9,29.82,ENE,63,1.0,17.0,90,0.17,,-RA,0.33,VWS V14.01,2013-03-18 02:47:00,
2013-03-17 21:49:00,34.5,31.9,29.82,East,82,2.0,17.0,90,0.17,,-RA,0.33,VWS V14.01,2013-03-18 02:49:00,
2013-03-17 21:50:00,34.5,31.9,29.82,ESE,123,1.0,17.0,90,0.18,,-RA,0.34,VWS V14.01,2013-03-18 02:50:00,
2013-03-17 21:51:00,34.5,31.9,29.82,East,82,9.0,17.0,90,0.18,,-RA,0.34,VWS V14.01,2013-03-18 02:51:00,
2013-03-17 21:52:00,34.5,31.9,29.82,NE,49,3.0,17.0,90,0.18,,-RA,0.34,VWS V14.01,2013-03-18 02:52:00,
2013-03-17 21:54:00,34.5,31.9,29.82,East,97,2.0,17.0,90,0.19,,-RA,0.35,VWS V14.01,2013-03-18 02:54:00,
2013-03-17 21:55:00,34.5,31.9,29.82,NE,41,5.0,17.0,90,0.19,,-RA,0.35,VWS V14.01,2013-03-18 02:55:00,
2013-03-17 21:57:00,34.5,31.9,29.82,SE,136,6.0,17.0,90,0.19,,-RA,0.35,VWS V14.01,2013-03-18 02:57:00,
2013-03-17 21:59:00,34.5,31.9,29.81,ESE,115,5.0,17.0,90,0.19,,-RA,0.35,VWS V14.01,2013-03-18 02:59:00,
2013-03-17 22:00:00,34.5,32.2,29.81,East,90,4.0,7.0,91,0.13,,-RA,0.35,VWS V14.01,2013-03-18 03:00:00,
2013-03-17 22:02:00,34.5,32.2,29.81,East,88,6.0,11.0,91,0.13,,RA,0.35,VWS V14.01,2013-03-18 03:02:00,
2013-03-17 22:03:00,34.5,32.2,29.81,ESE,117,4.0,11.0,91,0.14,,RA,0.36,VWS V14.01,2013-03-18 03:03:00,
2013-03-17 22:04:00,34.5,32.2,29.81,East,90,6.0,11.0,91,0.14,,RA,0.36,VWS V14.01,2013-03-18 03:04:00,
2013-03-17 22:06:00,34.5,32.2,29.81,SE,134,2.0,11.0,91,0.14,,RA,0.36,VWS V14.01,2013-03-18 03:06:00,
2013-03-17 22:07:00,34.5,32.2,29.81,ESE,120,0.0,11.0,91,0.15,,RA,0.37,VWS V14.01,2013-03-18 03:07:00,
2013-03-17 22:08:00,34.5,32.2,29.81,ESE,105,7.0,11.0,91,0.15,,RA,0.37,VWS V14.01,2013-03-18 03:08:00,
2013-03-17 22:09:00,34.5,32.2,29.81,ESE,113,2.0,11.0,91,0.15,,RA,0.37,VWS V14.01,2013-03-18 03:09:00,
2013-03-17 22:11:00,34.5,32.2,29.81,SE,132,3.0,11.0,91,0.15,,RA,0.37,VWS V14.01,2013-03-18 03:11:00,
2013-03-17 22:12:00,34.6,32.2,29.81,ESE,109,0.0,11.0,91,0.15,,RA,0.37,VWS V14.01,2013-03-18 03:12:00,
2013-03-17 22:13:00,34.6,32.2,29.81,ESE,109,0.0,11.0,91,0.16,,RA,0.38,VWS V14.01,2013-03-18 03:13:00,
2013-03-17 22:15:00,34.6,32.2,29.83,East,80,5.0,11.0,91,0.16,,RA,0.38,VWS V14.01,2013-03-18 03:15:00,
2013-03-17 22:17:00,34.6,32.2,29.83,East,95,0.0,11.0,91,0.16,,RA,0.38,VWS V14.01,2013-03-18 03:17:00,
2013-03-17 22:18:00,34.6,32.2,29.83,East,98,0.0,11.0,91,0.16,,RA,0.38,VWS V14.01,2013-03-18 03:18:00,
2013-03-17 22:20:00,34.6,32.2,29.83,ESE,116,3.0,11.0,91,0.16,,RA,0.38,VWS V14.01,2013-03-18 03:20:00,
2013-03-17 22:22:00,34.6,32.2,29.83,East,88,2.0,11.0,91,0.16,,RA,0.39,VWS V14.01,2013-03-18 03:22:00,
2013-03-17 22:23:00,34.6,32.2,29.83,ENE,64,2.0,11.0,91,0.17,,RA,0.39,VWS V14.01,2013-03-18 03:23:00,
2013-03-17 22:25:00,34.6,32.2,29.83,East,90,0.0,11.0,91,0.17,,RA,0.39,VWS V14.01,2013-03-18 03:25:00,
2013-03-17 22:27:00,34.6,32.2,29.83,ENE,76,2.0,11.0,91,0.17,,RA,0.39,VWS V14.01,2013-03-18 03:27:00,
2013-03-17 22:28:00,34.6,32.2,29.83,ENE,76,0.0,11.0,91,0.17,,RA,0.39,VWS V14.01,2013-03-18 03:28:00,
2013-03-17 22:30:00,34.6,32.2,29.83,NE,55,4.0,11.0,91,0.18,,RA,0.40,VWS V14.01,2013-03-18 03:30:00,
2013-03-17 22:32:00,34.6,32.2,29.83,ENE,70,3.0,7.0,91,0.10,,RA,0.40,VWS V14.01,2013-03-18 03:32:00,
2013-03-17 22:33:00,34.6,32.2,29.83,ENE,68,0.0,7.0,91,0.11,,RA,0.41,VWS V14.01,2013-03-18 03:33:00,
2013-03-17 22:34:00,34.6,32.2,29.83,ENE,68,0.0,7.0,91,0.11,,RA,0.41,VWS V14.01,2013-03-18 03:34:00,
2013-03-17 22:35:00,34.6,32.2,29.83,East,85,4.0,7.0,91,0.11,,RA,0.41,VWS V14.01,2013-03-18 03:35:00,
2013-03-17 22:37:00,34.6,32.2,29.83,East,92,0.0,9.0,91,0.11,,RA,0.41,VWS V14.01,2013-03-18 03:37:00,
2013-03-17 22:38:00,34.6,32.2,29.83,East,86,0.0,9.0,91,0.11,,RA,0.41,VWS V14.01,2013-03-18 03:38:00,
2013-03-17 22:39:00,34.6,32.2,29.83,ENE,63,0.0,9.0,91,0.11,,RA,0.41,VWS V14.01,2013-03-18 03:39:00,
2013-03-17 22:40:00,34.6,32.2,29.83,ENE,64,1.0,9.0,91,0.11,,RA,0.41,VWS V14.01,2013-03-18 03:40:00,
2013-03-17 22:42:00,34.6,32.2,29.83,ESE,105,0.0,9.0,91,0.12,,RA,0.42,VWS V14.01,2013-03-18 03:42:00,
2013-03-17 22:43:00,34.6,32.2,29.83,NNE,24,0.0,9.0,91,0.12,,RA,0.42,VWS V14.01,2013-03-18 03:43:00,
2013-03-17 22:44:00,34.6,32.2,29.83,ESE,111,2.0,9.0,91,0.12,,RA,0.42,VWS V14.01,2013-03-18 03:44:00,
2013-03-17 22:45:00,34.6,32.2,29.83,East,90,1.0,9.0,91,0.12,,RA,0.42,VWS V14.01,2013-03-18 03:45:00,
2013-03-17 22:47:00,34.6,32.2,29.83,ENE,69,0.0,9.0,91,0.12,,BKN033,0.42,VWS V14.01,2013-03-18 03:47:00,
2013-03-17 22:48:00,34.6,32.2,29.83,ENE,69,0.0,9.0,91,0.12,,BKN033,0.42,VWS V14.01,2013-03-18 03:48:00,
2013-03-17 22:50:00,34.6,32.2,29.83,ENE,60,3.0,11.0,91,0.13,,BKN033,0.43,VWS V14.01,2013-03-18 03:50:00,
2013-03-17 22:52:00,34.6,32.2,29.83,East,94,0.0,11.0,91,0.13,,BKN033,0.43,VWS V14.01,2013-03-18 03:52:00,
2013-03-17 22:53:00,34.6,32.2,29.83,ENE,72,3.0,11.0,91,0.13,,BKN033,0.43,VWS V14.01,2013-03-18 03:53:00,
2013-03-17 22:55:00,34.6,32.2,29.83,ESE,107,6.0,11.0,91,0.13,,BKN033,0.43,VWS V14.01,2013-03-18 03:55:00,
2013-03-17 22:58:00,34.6,32.2,29.83,ESE,110,5.0,11.0,91,0.13,,BKN033,0.43,VWS V14.01,2013-03-18 03:58:00,
2013-03-17 23:00:00,34.6,32.2,29.80,East,88,2.0,11.0,91,0.13,,BKN033,0.43,VWS V14.01,2013-03-18 04:00:00,
2013-03-17 23:05:00,34.6,32.2,29.80,NE,56,0.0,11.0,91,0.09,,RA,0.44,VWS V14.01,2013-03-18 04:05:00,
2013-03-17 23:10:00,34.6,32.2,29.80,East,89,2.0,11.0,91,0.10,,RA,0.45,VWS V14.01,2013-03-18 04:10:00,
2013-03-17 23:15:00,34.6,32.2,29.80,ENE,67,0.0,11.0,91,0.10,,RA,0.45,VWS V14.01,2013-03-18 04:15:00,
2013-03-17 23:20:00,34.6,32.2,29.80,ENE,62,0.0,11.0,91,0.10,,RA,0.45,VWS V14.01,2013-03-18 04:20:00,
2013-03-17 23:25:00,34.6,32.2,29.80,ENE,78,7.0,11.0,91,0.11,,RA,0.46,VWS V14.01,2013-03-18 04:25:00,
2013-03-17 23:26:00,34.6,32.2,29.80,NE,53,3.0,11.0,91,0.11,,RA,0.46,VWS V14.01,2013-03-18 04:26:00,
2013-03-17 23:30:00,34.6,32.2,29.78,East,86,4.0,5.0,91,0.06,,RA,0.46,VWS V14.01,2013-03-18 04:30:00,
2013-03-17 23:31:00,34.6,32.2,29.78,East,79,0.0,7.0,91,0.06,,RA,0.46,VWS V14.01,2013-03-18 04:31:00,
2013-03-17 23:35:00,34.6,32.2,29.78,NE,43,4.0,11.0,91,0.06,,RA,0.46,VWS V14.01,2013-03-18 04:35:00,
2013-03-17 23:36:00,34.6,32.2,29.78,NE,51,2.0,11.0,91,0.06,,RA,0.46,VWS V14.01,2013-03-18 04:36:00,
2013-03-17 23:37:00,34.6,32.2,29.78,ENE,77,0.0,11.0,91,0.06,,RA,0.46,VWS V14.01,2013-03-18 04:37:00,
2013-03-17 23:40:00,34.6,32.2,29.78,NE,55,0.0,11.0,91,0.06,,RA,0.46,VWS V14.01,2013-03-18 04:40:00,
2013-03-17 23:41:00,34.6,32.2,29.78,ENE,60,6.0,11.0,91,0.06,,RA,0.46,VWS V14.01,2013-03-18 04:41:00,
2013-03-17 23:42:00,34.6,32.2,29.78,ENE,63,0.0,11.0,91,0.06,,RA,0.46,VWS V14.01,2013-03-18 04:42:00,
2013-03-17 23:45:00,34.6,32.2,29.77,SE,144,6.0,11.0,91,0.06,,-RA,0.46,VWS V14.01,2013-03-18 04:45:00,
2013-03-17 23:46:00,34.6,32.2,29.77,East,94,5.0,11.0,91,0.06,,-RA,0.46,VWS V14.01,2013-03-18 04:46:00,
2013-03-17 23:47:00,34.6,32.2,29.77,East,99,8.0,12.0,91,0.06,,-RA,0.46,VWS V14.01,2013-03-18 04:47:00,
2013-03-17 23:50:00,34.6,32.2,29.77,East,99,6.0,12.0,91,0.06,,-RA,0.46,VWS V14.01,2013-03-18 04:50:00,
2013-03-17 23:52:00,34.6,32.2,29.77,East,96,0.0,12.0,91,0.06,,-RA,0.46,VWS V14.01,2013-03-18 04:52:00,
2013-03-17 23:55:00,34.6,32.2,29.77,East,84,1.0,12.0,91,0.06,,-RA,0.46,VWS V14.01,2013-03-18 04:55:00,
2013-03-17 23:57:00,34.6,32.2,29.77,East,86,0.0,12.0,91,0.06,,-RA,0.46,VWS V14.01,2013-03-18 04:57:00,